| time (UTC) | temp F | wind direction | speed MPH | gust MPH | rain 1hr in | rain 24hr in | rain mn in | humidity % | barometer mb |
| 20260902230711 | 82 | 268 | 13.0 | 26.0 | 0.00 | 0.00 | 0.00 | 28 | 1018.4 |
| 20260902230628 | 82 | 258 | 12.0 | 26.0 | 0.00 | 0.00 | 0.00 | 30 | 1018.3 |
| 20260902230622 | 82 | 327 | 12.0 | 26.0 | 0.00 | 0.00 | 0.00 | 30 | 1018.3 |
| 20260902230310 | 82 | 286 | 13.0 | 26.0 | 0.00 | 0.00 | 0.00 | 29 | 1018.4 |
| 20260902230210 | 82 | 277 | 12.0 | 26.0 | 0.00 | 0.00 | 0.00 | 29 | 1018.4 |
| 20260902230110 | 83 | 298 | 12.0 | 26.0 | 0.00 | 0.00 | 0.00 | 29 | 1018.4 |
| 20260902230040 | 83 | 309 | 12.0 | 26.0 | 0.00 | 0.00 | 0.00 | 29 | 1018.4 |
| 20260902230010 | 83 | 291 | 11.0 | 26.0 | 0.00 | 0.00 | 0.00 | 28 | 1018.4 |
| 20260902225917 | 83 | 293 | 11.0 | 26.0 | 0.00 | 0.00 | 0.00 | 28 | 1018.4 |
| 20260902225705 | 83 | 298 | 9.0 | 18.0 | 0.00 | 0.00 | 0.00 | 27 | 1018.5 |
| 20260902225607 | 83 | 286 | 8.0 | 18.0 | 0.00 | 0.00 | 0.00 | 26 | 1018.4 |
| 20260902225540 | 83 | 309 | 8.0 | 18.0 | 0.00 | 0.00 | 0.00 | 26 | 1018.4 |
| 20260902225506 | 83 | 325 | 8.0 | 18.0 | 0.00 | 0.00 | 0.00 | 27 | 1018.4 |
| 20260902225405 | 83 | 262 | 7.0 | 18.0 | 0.00 | 0.00 | 0.00 | 26 | 1018.4 |
| 20260902225313 | 83 | 346 | 6.0 | 18.0 | 0.00 | 0.00 | 0.00 | 26 | 1018.4 |
| 20260902225106 | 83 | 333 | 6.0 | 11.0 | 0.00 | 0.00 | 0.00 | 26 | 1018.5 |
| 20260902225041 | 83 | 300 | 6.0 | 11.0 | 0.00 | 0.00 | 0.00 | 26 | 1018.5 |
| 20260902225012 | 83 | 221 | 6.0 | 12.0 | 0.00 | 0.00 | 0.00 | 26 | 1018.4 |
| 20260902224806 | 83 | 289 | 6.0 | 12.0 | 0.00 | 0.00 | 0.00 | 26 | 1018.4 |
| 20260902224706 | 83 | 216 | 6.0 | 12.0 | 0.00 | 0.00 | 0.00 | 26 | 1018.4 |
| 20260902224606 | 83 | 300 | 7.0 | 12.0 | 0.00 | 0.00 | 0.00 | 26 | 1018.3 |
| 20260902224540 | 83 | 292 | 7.0 | 12.0 | 0.00 | 0.00 | 0.00 | 26 | 1018.3 |
| 20260902224505 | 84 | 323 | 7.0 | 12.0 | 0.00 | 0.00 | 0.00 | 26 | 1018.3 |
| 20260902224404 | 84 | 279 | 7.0 | 12.0 | 0.00 | 0.00 | 0.00 | 25 | 1018.4 |
| 20260902224310 | 84 | 300 | 7.0 | 12.0 | 0.00 | 0.00 | 0.00 | 26 | 1018.4 |
| 20260902224146 | 84 | 323 | 5.0 | 12.0 | 0.00 | 0.00 | 0.00 | 26 | 1018.4 |
| 20260902224005 | 85 | 265 | 5.0 | 11.0 | 0.00 | 0.00 | 0.00 | 27 | 1018.4 |
| 20260902223902 | 85 | 309 | 4.0 | 10.0 | 0.00 | 0.00 | 0.00 | 28 | 1018.3 |
| 20260902223801 | 85 | 315 | 4.0 | 10.0 | 0.00 | 0.00 | 0.00 | 26 | 1018.4 |
| 20260902223703 | 86 | 314 | 4.0 | 10.0 | 0.00 | 0.00 | 0.00 | 26 | 1018.5 |
| 20260902223603 | 86 | 279 | 4.0 | 10.0 | 0.00 | 0.00 | 0.00 | 28 | 1018.5 |
| 20260902223539 | 86 | 280 | 3.0 | 9.0 | 0.00 | 0.00 | 0.00 | 28 | 1018.5 |
| 20260902223501 | 86 | 260 | 3.0 | 9.0 | 0.00 | 0.00 | 0.00 | 27 | 1018.5 |
| 20260902223401 | 86 | 261 | 3.0 | 9.0 | 0.00 | 0.00 | 0.00 | 25 | 1018.4 |
| 20260902223153 | 86 | 166 | 3.0 | 9.0 | 0.00 | 0.00 | 0.00 | 25 | 1018.4 |
| 20260902223053 | 87 | 191 | 3.0 | 9.0 | 0.00 | 0.00 | 0.00 | 24 | 1018.4 |
| 20260902223037 | 87 | 213 | 3.0 | 9.0 | 0.00 | 0.00 | 0.00 | 24 | 1018.3 |
| 20260902222959 | 87 | 215 | 3.0 | 9.0 | 0.00 | 0.00 | 0.00 | 24 | 1018.3 |
| 20260902222755 | 87 | 173 | 3.0 | 10.0 | 0.00 | 0.00 | 0.00 | 24 | 1018.1 |
| 20260902222549 | 87 | 194 | 3.0 | 10.0 | 0.00 | 0.00 | 0.00 | 24 | 1018.1 |
| 20260902222536 | 87 | 163 | 3.0 | 10.0 | 0.00 | 0.00 | 0.00 | 24 | 1018.1 |
| 20260902222450 | 87 | 178 | 3.0 | 10.0 | 0.00 | 0.00 | 0.00 | 23 | 1018.1 |
| 20260902222346 | 87 | 173 | 3.0 | 10.0 | 0.00 | 0.00 | 0.00 | 23 | 1018.0 |
| 20260902222241 | 87 | 167 | 4.0 | 10.0 | 0.00 | 0.00 | 0.00 | 24 | 1018.0 |
| 20260902222141 | 87 | 167 | 4.0 | 10.0 | 0.00 | 0.00 | 0.00 | 23 | 1018.0 |
| 20260902222052 | 87 | 165 | 4.0 | 10.0 | 0.00 | 0.00 | 0.00 | 23 | 1017.9 |
| 20260902222046 | 87 | 161 | 4.0 | 10.0 | 0.00 | 0.00 | 0.00 | 23 | 1017.9 |
| 20260902221840 | 87 | 92 | 4.0 | 10.0 | 0.00 | 0.00 | 0.00 | 23 | 1017.9 |
| 20260902221735 | 88 | 138 | 4.0 | 8.0 | 0.00 | 0.00 | 0.00 | 23 | 1017.9 |
| 20260902221647 | 88 | 128 | 4.0 | 8.0 | 0.00 | 0.00 | 0.00 | 23 | 1017.9 |
| 20260902221640 | 88 | 127 | 4.0 | 8.0 | 0.00 | 0.00 | 0.00 | 22 | 1017.9 |
| 20260902221435 | 88 | 104 | 4.0 | 8.0 | 0.00 | 0.00 | 0.00 | 22 | 1017.9 |
| 20260902221333 | 88 | 92 | 4.0 | 8.0 | 0.00 | 0.00 | 0.00 | 25 | 1017.9 |
| 20260902221231 | 88 | 145 | 4.0 | 8.0 | 0.00 | 0.00 | 0.00 | 25 | 1017.9 |
| 20260902221131 | 88 | 175 | 4.0 | 11.0 | 0.00 | 0.00 | 0.00 | 22 | 1017.9 |
| 20260902221036 | 88 | 114 | 4.0 | 11.0 | 0.00 | 0.00 | 0.00 | 21 | 1017.9 |
| 20260902221029 | 88 | 125 | 4.0 | 11.0 | 0.00 | 0.00 | 0.00 | 21 | 1017.9 |
| 20260902220929 | 88 | 68 | 5.0 | 11.0 | 0.00 | 0.00 | 0.00 | 22 | 1017.9 |
| 20260902220826 | 88 | 142 | 4.0 | 11.0 | 0.00 | 0.00 | 0.00 | 23 | 1017.9 |
| 20260902220724 | 88 | 82 | 4.0 | 11.0 | 0.00 | 0.00 | 0.00 | 23 | 1017.9 |
| 20260902220536 | 88 | 51 | 4.0 | 11.0 | 0.00 | 0.00 | 0.00 | 22 | 1017.9 |
| 20260902220524 | 88 | 97 | 4.0 | 11.0 | 0.00 | 0.00 | 0.00 | 21 | 1017.9 |
| 20260902220316 | 88 | 98 | 4.0 | 11.0 | 0.00 | 0.00 | 0.00 | 23 | 1017.9 |
| 20260902220211 | 88 | 112 | 3.0 | 11.0 | 0.00 | 0.00 | 0.00 | 24 | 1018.0 |
| 20260902220111 | 88 | 123 | 3.0 | 8.0 | 0.00 | 0.00 | 0.00 | 23 | 1018.0 |
| 20260902220036 | 88 | 92 | 3.0 | 8.0 | 0.00 | 0.00 | 0.00 | 23 | 1018.0 |
| 20260902220011 | 88 | 123 | 3.0 | 7.0 | 0.00 | 0.00 | 0.00 | 22 | 1018.0 |
| 20260902215911 | 88 | 119 | 3.0 | 7.0 | 0.00 | 0.00 | 0.00 | 23 | 1018.0 |
| 20260902215818 | 88 | 96 | 3.0 | 7.0 | 0.00 | 0.00 | 0.00 | 23 | 1018.0 |
| 20260902215608 | 88 | 87 | 4.0 | 9.0 | 0.00 | 0.00 | 0.00 | 21 | 1018.0 |
| 20260902215537 | 88 | 94 | 4.0 | 9.0 | 0.00 | 0.00 | 0.00 | 21 | 1018.1 |
| 20260902215509 | 88 | 97 | 4.0 | 9.0 | 0.00 | 0.00 | 0.00 | 21 | 1018.1 |
| 20260902215408 | 89 | 81 | 4.0 | 9.0 | 0.00 | 0.00 | 0.00 | 21 | 1018.1 |
| 20260902215308 | 89 | 84 | 4.0 | 9.0 | 0.00 | 0.00 | 0.00 | 22 | 1018.3 |
| 20260902215206 | 89 | 85 | 4.0 | 9.0 | 0.00 | 0.00 | 0.00 | 21 | 1018.3 |
| 20260902215141 | 89 | 96 | 4.0 | 9.0 | 0.00 | 0.00 | 0.00 | 24 | 1018.4 |
| 20260902215007 | 89 | 79 | 4.0 | 9.0 | 0.00 | 0.00 | 0.00 | 21 | 1018.3 |
| 20260902214913 | 89 | 90 | 4.0 | 9.0 | 0.00 | 0.00 | 0.00 | 21 | 1018.4 |
| 20260902214707 | 89 | 105 | 3.0 | 9.0 | 0.00 | 0.00 | 0.00 | 23 | 1018.4 |
| 20260902214606 | 88 | 138 | 3.0 | 8.0 | 0.00 | 0.00 | 0.00 | 24 | 1018.4 |
| 20260902214531 | 88 | 106 | 3.0 | 8.0 | 0.00 | 0.00 | 0.00 | 21 | 1018.4 |
| 20260902214506 | 88 | 119 | 3.0 | 8.0 | 0.00 | 0.00 | 0.00 | 21 | 1018.4 |
| 20260902214407 | 88 | 81 | 3.0 | 8.0 | 0.00 | 0.00 | 0.00 | 21 | 1018.4 |
| 20260902214306 | 88 | 128 | 3.0 | 8.0 | 0.00 | 0.00 | 0.00 | 22 | 1018.4 |
| 20260902214204 | 88 | 121 | 3.0 | 8.0 | 0.00 | 0.00 | 0.00 | 22 | 1018.4 |
| 20260902214137 | 88 | 103 | 3.0 | 8.0 | 0.00 | 0.00 | 0.00 | 22 | 1018.4 |
| 20260902214002 | 88 | 103 | 4.0 | 10.0 | 0.00 | 0.00 | 0.00 | 21 | 1018.4 |
| 20260902213900 | 88 | 57 | 4.0 | 10.0 | 0.00 | 0.00 | 0.00 | 22 | 1018.4 |
| 20260902213800 | 88 | 51 | 4.0 | 10.0 | 0.00 | 0.00 | 0.00 | 23 | 1018.5 |
| 20260902213659 | 88 | 111 | 4.0 | 10.0 | 0.00 | 0.00 | 0.00 | 24 | 1018.5 |
| 20260902213637 | 88 | 87 | 4.0 | 10.0 | 0.00 | 0.00 | 0.00 | 22 | 1018.4 |
| 20260902213459 | 88 | 73 | 5.0 | 10.0 | 0.00 | 0.00 | 0.00 | 23 | 1018.4 |
| 20260902213358 | 88 | 57 | 5.0 | 10.0 | 0.00 | 0.00 | 0.00 | 22 | 1018.4 |
| 20260902213259 | 88 | 68 | 5.0 | 10.0 | 0.00 | 0.00 | 0.00 | 22 | 1018.5 |
| 20260902213244 | 88 | 67 | 5.0 | 10.0 | 0.00 | 0.00 | 0.00 | 22 | 1018.5 |
| 20260902212957 | 88 | 103 | 5.0 | 10.0 | 0.00 | 0.00 | 0.00 | 22 | 1018.5 |
| 20260902212855 | 88 | 123 | 5.0 | 10.0 | 0.00 | 0.00 | 0.00 | 23 | 1018.5 |
| 20260902212753 | 88 | 143 | 5.0 | 10.0 | 0.00 | 0.00 | 0.00 | 21 | 1018.5 |
| 20260902212653 | 89 | 118 | 5.0 | 10.0 | 0.00 | 0.00 | 0.00 | 21 | 1018.5 |
| 20260902212553 | 89 | 74 | 5.0 | 10.0 | 0.00 | 0.00 | 0.00 | 22 | 1018.5 |
| 20260902212530 | 89 | 57 | 5.0 | 10.0 | 0.00 | 0.00 | 0.00 | 22 | 1018.6 |
| 20260902212453 | 89 | 98 | 5.0 | 10.0 | 0.00 | 0.00 | 0.00 | 22 | 1018.6 |
| 20260902212351 | 89 | 89 | 5.0 | 10.0 | 0.00 | 0.00 | 0.00 | 23 | 1018.6 |
| 20260902212250 | 89 | 54 | 5.0 | 10.0 | 0.00 | 0.00 | 0.00 | 22 | 1018.6 |
| 20260902212151 | 89 | 158 | 5.0 | 10.0 | 0.00 | 0.00 | 0.00 | 22 | 1018.6 |
| 20260902212136 | 89 | 175 | 5.0 | 11.0 | 0.00 | 0.00 | 0.00 | 22 | 1018.6 |
| 20260902211951 | 89 | 141 | 5.0 | 11.0 | 0.00 | 0.00 | 0.00 | 23 | 1018.6 |
| 20260902211850 | 89 | 136 | 5.0 | 11.0 | 0.00 | 0.00 | 0.00 | 22 | 1018.6 |
| 20260902211745 | 89 | 84 | 5.0 | 11.0 | 0.00 | 0.00 | 0.00 | 21 | 1018.7 |
| 20260902211644 | 89 | 74 | 5.0 | 11.0 | 0.00 | 0.00 | 0.00 | 21 | 1018.7 |
| 20260902211543 | 89 | 90 | 5.0 | 12.0 | 0.00 | 0.00 | 0.00 | 21 | 1018.7 |
| 20260902211523 | 89 | 53 | 6.0 | 16.0 | 0.00 | 0.00 | 0.00 | 21 | 1018.7 |
| 20260902211449 | 89 | 59 | 6.0 | 16.0 | 0.00 | 0.00 | 0.00 | 21 | 1018.7 |
| 20260902211237 | 89 | 88 | 7.0 | 16.0 | 0.00 | 0.00 | 0.00 | 21 | 1018.7 |
| 20260902211201 | 89 | 73 | 6.0 | 16.0 | 0.00 | 0.00 | 0.00 | 22 | 1018.7 |
| 20260902211047 | 89 | 76 | 7.0 | 16.0 | 0.00 | 0.00 | 0.00 | 22 | 1018.6 |
| 20260902210732 | 89 | 96 | 7.0 | 16.0 | 0.00 | 0.00 | 0.00 | 21 | 1018.7 |
| 20260902210633 | 89 | 73 | 6.0 | 16.0 | 0.00 | 0.00 | 0.00 | 21 | 1018.7 |
| 20260902210532 | 89 | 45 | 6.0 | 16.0 | 0.00 | 0.00 | 0.00 | 23 | 1018.8 |
| 20260902210510 | 89 | 49 | 6.0 | 12.0 | 0.00 | 0.00 | 0.00 | 23 | 1018.8 |
| 20260902210431 | 89 | 92 | 6.0 | 12.0 | 0.00 | 0.00 | 0.00 | 21 | 1018.8 |
| 20260902210331 | 89 | 350 | 6.0 | 12.0 | 0.00 | 0.00 | 0.00 | 22 | 1018.8 |
| 20260902210125 | 89 | 71 | 6.0 | 12.0 | 0.00 | 0.00 | 0.00 | 22 | 1018.8 |
| 20260902210025 | 89 | 129 | 7.0 | 12.0 | 0.00 | 0.00 | 0.00 | 25 | 1018.8 |
| 20260902210005 | 89 | 138 | 7.0 | 12.0 | 0.00 | 0.00 | 0.00 | 25 | 1018.8 |
| 20260902205925 | 89 | 115 | 7.0 | 14.0 | 0.00 | 0.00 | 0.00 | 21 | 1019.0 |
| 20260902205824 | 89 | 134 | 7.0 | 14.0 | 0.00 | 0.00 | 0.00 | 21 | 1019.0 |
| 20260902205727 | 89 | 130 | 7.0 | 14.0 | 0.00 | 0.00 | 0.00 | 21 | 1019.0 |
| 20260902205521 | 89 | 161 | 7.0 | 14.0 | 0.00 | 0.00 | 0.00 | 23 | 1018.8 |
| 20260902205457 | 89 | 175 | 7.0 | 14.0 | 0.00 | 0.00 | 0.00 | 23 | 1018.8 |
| 20260902205419 | 89 | 136 | 7.0 | 14.0 | 0.00 | 0.00 | 0.00 | 23 | 1019.0 |
| 20260902205318 | 88 | 139 | 7.0 | 15.0 | 0.00 | 0.00 | 0.00 | 22 | 1019.0 |
| 20260902205213 | 88 | 111 | 7.0 | 15.0 | 0.00 | 0.00 | 0.00 | 23 | 1019.1 |
| 20260902205113 | 88 | 107 | 6.0 | 15.0 | 0.00 | 0.00 | 0.00 | 22 | 1019.0 |
| 20260902205013 | 88 | 165 | 6.0 | 15.0 | 0.00 | 0.00 | 0.00 | 22 | 1019.1 |
| 20260902204951 | 88 | 109 | 6.0 | 15.0 | 0.00 | 0.00 | 0.00 | 22 | 1019.1 |
| 20260902204913 | 88 | 158 | 6.0 | 15.0 | 0.00 | 0.00 | 0.00 | 22 | 1019.0 |
| 20260902204813 | 88 | 121 | 6.0 | 15.0 | 0.00 | 0.00 | 0.00 | 21 | 1019.1 |
| 20260902204707 | 89 | 72 | 6.0 | 15.0 | 0.00 | 0.00 | 0.00 | 23 | 1019.1 |
| 20260902204607 | 89 | 5 | 6.0 | 15.0 | 0.00 | 0.00 | 0.00 | 21 | 1019.1 |
| 20260902204552 | 89 | 24 | 6.0 | 15.0 | 0.00 | 0.00 | 0.00 | 22 | 1019.1 |
| 20260902204411 | 89 | 48 | 5.0 | 15.0 | 0.00 | 0.00 | 0.00 | 26 | 1019.2 |
| 20260902204159 | 89 | 102 | 5.0 | 11.0 | 0.00 | 0.00 | 0.00 | 22 | 1019.2 |
| 20260902204116 | 89 | 65 | 5.0 | 11.0 | 0.00 | 0.00 | 0.00 | 21 | 1019.2 |
| 20260902204110 | 89 | 123 | 5.0 | 11.0 | 0.00 | 0.00 | 0.00 | 22 | 1019.3 |
| 20260902203758 | 89 | 121 | 5.0 | 11.0 | 0.00 | 0.00 | 0.00 | 24 | 1019.3 |
| 20260902203655 | 89 | 18 | 6.0 | 11.0 | 0.00 | 0.00 | 0.00 | 22 | 1019.3 |
| 20260902203555 | 89 | 142 | 6.0 | 11.0 | 0.00 | 0.00 | 0.00 | 23 | 1019.3 |
| 20260902203455 | 89 | 74 | 6.0 | 11.0 | 0.00 | 0.00 | 0.00 | 22 | 1019.3 |
| 20260902203431 | 89 | 73 | 5.0 | 11.0 | 0.00 | 0.00 | 0.00 | 22 | 1019.4 |
| 20260902203355 | 89 | 58 | 5.0 | 11.0 | 0.00 | 0.00 | 0.00 | 22 | 1019.4 |
| 20260902203252 | 89 | 42 | 5.0 | 11.0 | 0.00 | 0.00 | 0.00 | 23 | 1019.4 |
| 20260902203149 | 89 | 96 | 5.0 | 11.0 | 0.00 | 0.00 | 0.00 | 21 | 1019.3 |
| 20260902203046 | 89 | 73 | 4.0 | 11.0 | 0.00 | 0.00 | 0.00 | 22 | 1019.4 |
| 20260902202959 | 89 | 80 | 4.0 | 11.0 | 0.00 | 0.00 | 0.00 | 23 | 1019.4 |
| 20260902202952 | 89 | 56 | 4.0 | 11.0 | 0.00 | 0.00 | 0.00 | 23 | 1019.4 |
| 20260902202749 | 89 | 148 | 4.0 | 11.0 | 0.00 | 0.00 | 0.00 | 22 | 1019.3 |
| 20260902202601 | 89 | 66 | 4.0 | 11.0 | 0.00 | 0.00 | 0.00 | 22 | 1019.4 |
| 20260902202447 | 88 | 159 | 5.0 | 12.0 | 0.00 | 0.00 | 0.00 | 22 | 1019.6 |
| 20260902202246 | 88 | 161 | 5.0 | 12.0 | 0.00 | 0.00 | 0.00 | 24 | 1019.6 |
| 20260902202038 | 88 | 146 | 6.0 | 12.0 | 0.00 | 0.00 | 0.00 | 25 | 1019.6 |
| 20260902201939 | 88 | 132 | 6.0 | 12.0 | 0.00 | 0.00 | 0.00 | 23 | 1019.7 |
| 20260902201914 | 88 | 96 | 6.0 | 12.0 | 0.00 | 0.00 | 0.00 | 23 | 1019.7 |
| 20260902201837 | 88 | 101 | 6.0 | 12.0 | 0.00 | 0.00 | 0.00 | 23 | 1019.7 |
| 20260902201734 | 88 | 115 | 6.0 | 12.0 | 0.00 | 0.00 | 0.00 | 23 | 1019.7 |
| 20260902201629 | 87 | 121 | 5.0 | 12.0 | 0.00 | 0.00 | 0.00 | 23 | 1019.7 |
| 20260902201529 | 87 | 115 | 5.0 | 12.0 | 0.00 | 0.00 | 0.00 | 24 | 1019.7 |
| 20260902201429 | 87 | 113 | 5.0 | 12.0 | 0.00 | 0.00 | 0.00 | 23 | 1019.7 |
| 20260902201407 | 87 | 105 | 5.0 | 12.0 | 0.00 | 0.00 | 0.00 | 23 | 1019.7 |
| 20260902201329 | 87 | 85 | 6.0 | 12.0 | 0.00 | 0.00 | 0.00 | 21 | 1019.7 |
| 20260902201228 | 87 | 100 | 7.0 | 12.0 | 0.00 | 0.00 | 0.00 | 21 | 1019.8 |
| 20260902201123 | 87 | 78 | 7.0 | 13.0 | 0.00 | 0.00 | 0.00 | 22 | 1019.8 |
| 20260902201022 | 87 | 78 | 7.0 | 13.0 | 0.00 | 0.00 | 0.00 | 22 | 1019.8 |
| 20260902200923 | 87 | 35 | 7.0 | 13.0 | 0.00 | 0.00 | 0.00 | 22 | 1019.9 |
| 20260902200901 | 87 | 34 | 7.0 | 13.0 | 0.00 | 0.00 | 0.00 | 22 | 1019.9 |
| 20260902200823 | 87 | 105 | 7.0 | 15.0 | 0.00 | 0.00 | 0.00 | 22 | 1019.9 |
| 20260902200722 | 87 | 95 | 7.0 | 15.0 | 0.00 | 0.00 | 0.00 | 23 | 1019.8 |
| 20260902200617 | 87 | 88 | 7.0 | 15.0 | 0.00 | 0.00 | 0.00 | 23 | 1019.8 |
| 20260902200516 | 87 | 105 | 7.0 | 15.0 | 0.00 | 0.00 | 0.00 | 23 | 1019.9 |
| 20260902200417 | 87 | 85 | 7.0 | 15.0 | 0.00 | 0.00 | 0.00 | 23 | 1019.9 |
| 20260902200356 | 87 | 76 | 7.0 | 15.0 | 0.00 | 0.00 | 0.00 | 23 | 1019.9 |
| 20260902200317 | 87 | 82 | 6.0 | 15.0 | 0.00 | 0.00 | 0.00 | 23 | 1019.9 |
| 20260902200216 | 87 | 98 | 6.0 | 15.0 | 0.00 | 0.00 | 0.00 | 23 | 1019.9 |
| 20260902200110 | 87 | 11 | 6.0 | 15.0 | 0.00 | 0.00 | 0.00 | 23 | 1019.8 |
| 20260902200010 | 87 | 53 | 6.0 | 15.0 | 0.00 | 0.00 | 0.00 | 23 | 1019.8 |
| 20260902195912 | 87 | 84 | 5.0 | 15.0 | 0.00 | 0.00 | 0.00 | 24 | 1019.9 |
| 20260902195849 | 87 | 38 | 5.0 | 15.0 | 0.00 | 0.00 | 0.00 | 24 | 1019.9 |
| 20260902195811 | 87 | 110 | 5.0 | 12.0 | 0.00 | 0.00 | 0.00 | 22 | 1019.9 |
| 20260902195724 | 87 | 59 | 5.0 | 12.0 | 0.00 | 0.00 | 0.00 | 22 | 1019.9 |
| 20260902195409 | 87 | 108 | 6.0 | 12.0 | 0.00 | 0.00 | 0.00 | 24 | 1019.9 |
| 20260902195343 | 87 | 89 | 6.0 | 12.0 | 0.00 | 0.00 | 0.00 | 23 | 1019.9 |
| 20260902195311 | 87 | 49 | 6.0 | 13.0 | 0.00 | 0.00 | 0.00 | 23 | 1019.9 |
| 20260902195102 | 87 | 74 | 7.0 | 13.0 | 0.00 | 0.00 | 0.00 | 23 | 1020.0 |
| 20260902195051 | 87 | 109 | 7.0 | 13.0 | 0.00 | 0.00 | 0.00 | 22 | 1020.0 |
| 20260902194805 | 87 | 121 | 8.0 | 13.0 | 0.00 | 0.00 | 0.00 | 21 | 1020.2 |
| 20260902194601 | 87 | 167 | 8.0 | 14.0 | 0.00 | 0.00 | 0.00 | 22 | 1020.2 |
| 20260902194353 | 87 | 97 | 8.0 | 14.0 | 0.00 | 0.00 | 0.00 | 21 | 1020.2 |
| 20260902194331 | 87 | 98 | 7.0 | 14.0 | 0.00 | 0.00 | 0.00 | 23 | 1020.2 |
| 20260902194252 | 87 | 129 | 7.0 | 14.0 | 0.00 | 0.00 | 0.00 | 22 | 1020.2 |
| 20260902194153 | 87 | 136 | 7.0 | 14.0 | 0.00 | 0.00 | 0.00 | 22 | 1020.3 |
| 20260902194049 | 87 | 67 | 7.0 | 14.0 | 0.00 | 0.00 | 0.00 | 23 | 1020.2 |
| 20260902193947 | 87 | 66 | 7.0 | 14.0 | 0.00 | 0.00 | 0.00 | 23 | 1020.3 |
| 20260902193847 | 87 | 66 | 7.0 | 14.0 | 0.00 | 0.00 | 0.00 | 22 | 1020.3 |
| 20260902193826 | 87 | 90 | 7.0 | 14.0 | 0.00 | 0.00 | 0.00 | 22 | 1020.3 |
| 20260902193747 | 87 | 74 | 7.0 | 14.0 | 0.00 | 0.00 | 0.00 | 22 | 1020.3 |
| 20260902193646 | 87 | 95 | 7.0 | 14.0 | 0.00 | 0.00 | 0.00 | 23 | 1020.3 |
| 20260902193541 | 87 | 80 | 7.0 | 14.0 | 0.00 | 0.00 | 0.00 | 23 | 1020.3 |
| 20260902193447 | 87 | 106 | 7.0 | 14.0 | 0.00 | 0.00 | 0.00 | 23 | 1020.3 |
| 20260902193320 | 87 | 100 | 7.0 | 14.0 | 0.00 | 0.00 | 0.00 | 24 | 1020.3 |
| 20260902193241 | 87 | 68 | 7.0 | 14.0 | 0.00 | 0.00 | 0.00 | 24 | 1020.3 |
| 20260902193140 | 87 | 86 | 7.0 | 14.0 | 0.00 | 0.00 | 0.00 | 24 | 1020.3 |
| 20260902193035 | 87 | 55 | 8.0 | 14.0 | 0.00 | 0.00 | 0.00 | 23 | 1020.3 |
| 20260902192935 | 87 | 102 | 8.0 | 14.0 | 0.00 | 0.00 | 0.00 | 24 | 1020.3 |
| 20260902192835 | 87 | 112 | 8.0 | 14.0 | 0.00 | 0.00 | 0.00 | 23 | 1020.3 |
| 20260902192814 | 87 | 80 | 8.0 | 14.0 | 0.00 | 0.00 | 0.00 | 24 | 1020.3 |
| 20260902192734 | 87 | 76 | 7.0 | 14.0 | 0.00 | 0.00 | 0.00 | 24 | 1020.4 |
| 20260902192640 | 87 | 87 | 7.0 | 14.0 | 0.00 | 0.00 | 0.00 | 24 | 1020.3 |
| 20260902192433 | 87 | 141 | 7.0 | 12.0 | 0.00 | 0.00 | 0.00 | 24 | 1020.4 |
| 20260902192414 | 87 | 111 | 6.0 | 12.0 | 0.00 | 0.00 | 0.00 | 24 | 1020.4 |
| 20260902192230 | 87 | 104 | 7.0 | 12.0 | 0.00 | 0.00 | 0.00 | 23 | 1020.5 |
| 20260902192128 | 87 | 104 | 6.0 | 12.0 | 0.00 | 0.00 | 0.00 | 24 | 1020.4 |
| 20260902192025 | 87 | 97 | 6.0 | 12.0 | 0.00 | 0.00 | 0.00 | 25 | 1020.4 |
| 20260902191923 | 87 | 129 | 7.0 | 12.0 | 0.00 | 0.00 | 0.00 | 25 | 1020.5 |
| 20260902191823 | 87 | 105 | 7.0 | 14.0 | 0.00 | 0.00 | 0.00 | 24 | 1020.5 |
| 20260902191801 | 86 | 92 | 7.0 | 14.0 | 0.00 | 0.00 | 0.00 | 24 | 1020.5 |
| 20260902191723 | 86 | 131 | 7.0 | 14.0 | 0.00 | 0.00 | 0.00 | 24 | 1020.4 |
| 20260902191622 | 86 | 161 | 7.0 | 14.0 | 0.00 | 0.00 | 0.00 | 24 | 1020.5 |
| 20260902191525 | 87 | 110 | 8.0 | 14.0 | 0.00 | 0.00 | 0.00 | 23 | 1020.5 |
| 20260902191319 | 86 | 138 | 8.0 | 14.0 | 0.00 | 0.00 | 0.00 | 23 | 1020.5 |
| 20260902191256 | 86 | 119 | 8.0 | 14.0 | 0.00 | 0.00 | 0.00 | 24 | 1020.5 |
| 20260902191218 | 86 | 117 | 8.0 | 14.0 | 0.00 | 0.00 | 0.00 | 24 | 1020.5 |
| 20260902191116 | 86 | 105 | 8.0 | 14.0 | 0.00 | 0.00 | 0.00 | 23 | 1020.5 |
| 20260902191017 | 87 | 114 | 8.0 | 14.0 | 0.00 | 0.00 | 0.00 | 23 | 1020.5 |
| 20260902190810 | 87 | 80 | 7.0 | 14.0 | 0.00 | 0.00 | 0.00 | 24 | 1020.6 |
| 20260902190750 | 87 | 97 | 7.0 | 14.0 | 0.00 | 0.00 | 0.00 | 24 | 1020.6 |
| 20260902190711 | 87 | 107 | 6.0 | 14.0 | 0.00 | 0.00 | 0.00 | 24 | 1020.5 |
| 20260902190610 | 87 | 76 | 6.0 | 14.0 | 0.00 | 0.00 | 0.00 | 25 | 1020.6 |
| 20260902190505 | 87 | 110 | 5.0 | 14.0 | 0.00 | 0.00 | 0.00 | 24 | 1020.6 |
| 20260902190404 | 87 | 100 | 5.0 | 14.0 | 0.00 | 0.00 | 0.00 | 24 | 1020.6 |
| 20260902190316 | 87 | 132 | 5.0 | 14.0 | 0.00 | 0.00 | 0.00 | 25 | 1020.7 |
| 20260902190308 | 87 | 101 | 4.0 | 14.0 | 0.00 | 0.00 | 0.00 | 25 | 1020.7 |
| 20260902190104 | 86 | 115 | 4.0 | 9.0 | 0.00 | 0.00 | 0.00 | 24 | 1020.6 |
| 20260902185958 | 86 | 105 | 4.0 | 8.0 | 0.00 | 0.00 | 0.00 | 26 | 1020.7 |
| 20260902185859 | 87 | 125 | 3.0 | 8.0 | 0.00 | 0.00 | 0.00 | 25 | 1020.7 |
| 20260902185845 | 87 | 69 | 3.0 | 8.0 | 0.00 | 0.00 | 0.00 | 24 | 1020.7 |
| 20260902185700 | 87 | 51 | 3.0 | 8.0 | 0.00 | 0.00 | 0.00 | 23 | 1020.7 |
| 20260902185558 | 87 | 60 | 3.0 | 8.0 | 0.00 | 0.00 | 0.00 | 24 | 1020.7 |
| 20260902185500 | 87 | 69 | 3.0 | 8.0 | 0.00 | 0.00 | 0.00 | 25 | 1020.9 |
| 20260902185253 | 87 | 90 | 4.0 | 8.0 | 0.00 | 0.00 | 0.00 | 25 | 1020.9 |
| 20260902185231 | 87 | 95 | 3.0 | 9.0 | 0.00 | 0.00 | 0.00 | 25 | 1020.9 |
| 20260902185152 | 87 | 79 | 3.0 | 9.0 | 0.00 | 0.00 | 0.00 | 25 | 1020.9 |
| 20260902185052 | 87 | 96 | 3.0 | 9.0 | 0.00 | 0.00 | 0.00 | 26 | 1020.7 |
| 20260902184951 | 87 | 145 | 4.0 | 12.0 | 0.00 | 0.00 | 0.00 | 26 | 1020.9 |
| 20260902184851 | 86 | 39 | 5.0 | 13.0 | 0.00 | 0.00 | 0.00 | 24 | 1020.9 |
| 20260902184753 | 87 | 71 | 6.0 | 14.0 | 0.00 | 0.00 | 0.00 | 24 | 1020.9 |
| 20260902184546 | 87 | 38 | 6.0 | 14.0 | 0.00 | 0.00 | 0.00 | 24 | 1021.0 |
| 20260902184441 | 86 | 78 | 6.0 | 14.0 | 0.00 | 0.00 | 0.00 | 25 | 1021.0 |
| 20260902184341 | 86 | 107 | 7.0 | 14.0 | 0.00 | 0.00 | 0.00 | 24 | 1021.0 |
| 20260902184240 | 86 | 113 | 7.0 | 14.0 | 0.00 | 0.00 | 0.00 | 27 | 1021.0 |
| 20260902184219 | 86 | 146 | 7.0 | 14.0 | 0.00 | 0.00 | 0.00 | 27 | 1021.0 |
| 20260902184140 | 86 | 102 | 7.0 | 14.0 | 0.00 | 0.00 | 0.00 | 29 | 1021.0 |
| 20260902184041 | 86 | 131 | 6.0 | 14.0 | 0.00 | 0.00 | 0.00 | 25 | 1021.0 |
| 20260902183943 | 86 | 106 | 5.0 | 14.0 | 0.00 | 0.00 | 0.00 | 24 | 1021.0 |
| 20260902183820 | 87 | 113 | 5.0 | 11.0 | 0.00 | 0.00 | 0.00 | 25 | 1021.0 |
| 20260902183637 | 87 | 98 | 5.0 | 11.0 | 0.00 | 0.00 | 0.00 | 25 | 1021.0 |
| 20260902183534 | 87 | 123 | 5.0 | 11.0 | 0.00 | 0.00 | 0.00 | 24 | 1021.1 |
| 20260902183430 | 87 | 67 | 5.0 | 11.0 | 0.00 | 0.00 | 0.00 | 26 | 1021.0 |
| 20260902183329 | 87 | 103 | 5.0 | 11.0 | 0.00 | 0.00 | 0.00 | 25 | 1021.0 |
| 20260902183239 | 86 | 94 | 5.0 | 11.0 | 0.00 | 0.00 | 0.00 | 25 | 1021.0 |
| 20260902183232 | 86 | 90 | 5.0 | 11.0 | 0.00 | 0.00 | 0.00 | 25 | 1021.0 |
| 20260902183028 | 86 | 123 | 4.0 | 11.0 | 0.00 | 0.00 | 0.00 | 26 | 1021.1 |
| 20260902182923 | 86 | 120 | 4.0 | 11.0 | 0.00 | 0.00 | 0.00 | 26 | 1021.1 |
| 20260902182829 | 86 | 105 | 4.0 | 11.0 | 0.00 | 0.00 | 0.00 | 29 | 1021.1 |
| 20260902182701 | 86 | 128 | 4.0 | 11.0 | 0.00 | 0.00 | 0.00 | 26 | 1021.2 |
| 20260902182629 | 86 | 102 | 4.0 | 11.0 | 0.00 | 0.00 | 0.00 | 25 | 1021.1 |
| 20260902182417 | 86 | 111 | 4.0 | 11.0 | 0.00 | 0.00 | 0.00 | 26 | 1021.1 |
| 20260902182316 | 85 | 107 | 4.0 | 11.0 | 0.00 | 0.00 | 0.00 | 26 | 1021.2 |
| 20260902182216 | 85 | 113 | 4.0 | 11.0 | 0.00 | 0.00 | 0.00 | 27 | 1021.2 |
| 20260902182156 | 85 | 120 | 4.0 | 11.0 | 0.00 | 0.00 | 0.00 | 27 | 1021.2 |
| 20260902182118 | 85 | 116 | 4.0 | 11.0 | 0.00 | 0.00 | 0.00 | 27 | 1021.2 |
| 20260902182017 | 85 | 95 | 4.0 | 11.0 | 0.00 | 0.00 | 0.00 | 25 | 1021.2 |
| 20260902181810 | 85 | 133 | 5.0 | 11.0 | 0.00 | 0.00 | 0.00 | 25 | 1021.3 |
| 20260902181723 | 85 | 123 | 4.0 | 11.0 | 0.00 | 0.00 | 0.00 | 26 | 1021.5 |
| 20260902181716 | 85 | 117 | 4.0 | 11.0 | 0.00 | 0.00 | 0.00 | 26 | 1021.5 |
| 20260902181510 | 85 | 81 | 4.0 | 12.0 | 0.00 | 0.00 | 0.00 | 26 | 1021.5 |
| 20260902181406 | 85 | 70 | 5.0 | 12.0 | 0.00 | 0.00 | 0.00 | 26 | 1021.5 |
| 20260902181307 | 85 | 90 | 5.0 | 12.0 | 0.00 | 0.00 | 0.00 | 26 | 1021.5 |
| 20260902181206 | 85 | 63 | 5.0 | 12.0 | 0.00 | 0.00 | 0.00 | 26 | 1021.5 |
| 20260902181143 | 85 | 38 | 5.0 | 12.0 | 0.00 | 0.00 | 0.00 | 26 | 1021.5 |
| 20260902181107 | 85 | 63 | 5.0 | 12.0 | 0.00 | 0.00 | 0.00 | 25 | 1021.6 |
| 20260902181004 | 85 | 53 | 5.0 | 12.0 | 0.00 | 0.00 | 0.00 | 26 | 1021.6 |
| 20260902180903 | 85 | 77 | 5.0 | 12.0 | 0.00 | 0.00 | 0.00 | 25 | 1021.6 |
| 20260902180803 | 85 | 93 | 5.0 | 12.0 | 0.00 | 0.00 | 0.00 | 26 | 1021.7 |
| 20260902180713 | 86 | 111 | 5.0 | 12.0 | 0.00 | 0.00 | 0.00 | 25 | 1021.7 |
| 20260902180707 | 86 | 102 | 5.0 | 12.0 | 0.00 | 0.00 | 0.00 | 25 | 1021.6 |
| 20260902180458 | 86 | 67 | 5.0 | 12.0 | 0.00 | 0.00 | 0.00 | 25 | 1021.7 |
| 20260902180401 | 86 | 97 | 5.0 | 12.0 | 0.00 | 0.00 | 0.00 | 26 | 1021.6 |
| 20260902180238 | 86 | 125 | 4.0 | 12.0 | 0.00 | 0.00 | 0.00 | 27 | 1021.6 |
| 20260902180054 | 86 | 68 | 5.0 | 12.0 | 0.00 | 0.00 | 0.00 | 28 | 1021.6 |
| 20260902175952 | 86 | 185 | 5.0 | 12.0 | 0.00 | 0.00 | 0.00 | 31 | 1021.6 |
| 20260902175849 | 86 | 136 | 5.0 | 12.0 | 0.00 | 0.00 | 0.00 | 27 | 1021.7 |
| 20260902175746 | 86 | 132 | 6.0 | 12.0 | 0.00 | 0.00 | 0.00 | 28 | 1021.7 |
| 20260902175646 | 85 | 105 | 6.0 | 12.0 | 0.00 | 0.00 | 0.00 | 30 | 1021.8 |
| 20260902175626 | 85 | 113 | 5.0 | 12.0 | 0.00 | 0.00 | 0.00 | 30 | 1021.8 |
| 20260902175547 | 85 | 92 | 5.0 | 12.0 | 0.00 | 0.00 | 0.00 | 28 | 1021.8 |
| 20260902175446 | 85 | 105 | 5.0 | 12.0 | 0.00 | 0.00 | 0.00 | 28 | 1021.8 |
| 20260902175340 | 85 | 74 | 5.0 | 12.0 | 0.00 | 0.00 | 0.00 | 31 | 1021.8 |
| 20260902175247 | 85 | 126 | 5.0 | 12.0 | 0.00 | 0.00 | 0.00 | 30 | 1021.9 |
| 20260902175120 | 85 | 136 | 6.0 | 12.0 | 0.00 | 0.00 | 0.00 | 27 | 1021.9 |
| 20260902175040 | 85 | 104 | 6.0 | 12.0 | 0.00 | 0.00 | 0.00 | 27 | 1022.0 |
| 20260902174940 | 85 | 136 | 6.0 | 12.0 | 0.00 | 0.00 | 0.00 | 29 | 1022.0 |
| 20260902174835 | 85 | 163 | 5.0 | 12.0 | 0.00 | 0.00 | 0.00 | 29 | 1021.9 |
| 20260902174735 | 85 | 143 | 5.0 | 12.0 | 0.00 | 0.00 | 0.00 | 28 | 1021.9 |
| 20260902174634 | 85 | 112 | 6.0 | 12.0 | 0.00 | 0.00 | 0.00 | 26 | 1021.9 |
| 20260902174613 | 85 | 94 | 6.0 | 12.0 | 0.00 | 0.00 | 0.00 | 26 | 1021.9 |
| 20260902174534 | 85 | 98 | 6.0 | 12.0 | 0.00 | 0.00 | 0.00 | 26 | 1022.0 |
| 20260902174434 | 85 | 112 | 5.0 | 12.0 | 0.00 | 0.00 | 0.00 | 27 | 1022.0 |
| 20260902174332 | 85 | 144 | 5.0 | 12.0 | 0.00 | 0.00 | 0.00 | 28 | 1022.0 |
| 20260902174252 | 85 | 104 | 5.0 | 12.0 | 0.00 | 0.00 | 0.00 | 26 | 1022.0 |
| 20260902174245 | 85 | 108 | 5.0 | 12.0 | 0.00 | 0.00 | 0.00 | 26 | 1022.3 |
| 20260902173932 | 85 | 140 | 4.0 | 11.0 | 0.00 | 0.00 | 0.00 | 29 | 1022.3 |
| 20260902173731 | 85 | 169 | 5.0 | 10.0 | 0.00 | 0.00 | 0.00 | 27 | 1022.2 |
| 20260902173602 | 85 | 108 | 5.0 | 10.0 | 0.00 | 0.00 | 0.00 | 31 | 1022.2 |
| 20260902173525 | 85 | 125 | 5.0 | 12.0 | 0.00 | 0.00 | 0.00 | 32 | 1022.2 |
| 20260902173423 | 85 | 147 | 5.0 | 12.0 | 0.00 | 0.00 | 0.00 | 32 | 1022.2 |
| 20260902173323 | 85 | 111 | 5.0 | 12.0 | 0.00 | 0.00 | 0.00 | 28 | 1022.2 |
| 20260902173116 | 85 | 91 | 5.0 | 12.0 | 0.00 | 0.00 | 0.00 | 26 | 1022.2 |
| 20260902173055 | 85 | 57 | 5.0 | 12.0 | 0.00 | 0.00 | 0.00 | 26 | 1022.2 |
| 20260902173016 | 85 | 70 | 5.0 | 12.0 | 0.00 | 0.00 | 0.00 | 29 | 1022.2 |
| 20260902172916 | 85 | 120 | 5.0 | 12.0 | 0.00 | 0.00 | 0.00 | 28 | 1022.2 |
| 20260902172813 | 85 | 105 | 5.0 | 12.0 | 0.00 | 0.00 | 0.00 | 28 | 1022.2 |
| 20260902172713 | 85 | 162 | 5.0 | 12.0 | 0.00 | 0.00 | 0.00 | 29 | 1022.0 |
| 20260902172624 | 85 | 139 | 5.0 | 12.0 | 0.00 | 0.00 | 0.00 | 32 | 1022.0 |
| 20260902172617 | 84 | 161 | 5.0 | 12.0 | 0.00 | 0.00 | 0.00 | 32 | 1022.0 |
| 20260902172410 | 84 | 171 | 5.0 | 9.0 | 0.00 | 0.00 | 0.00 | 29 | 1022.2 |
| 20260902172308 | 84 | 146 | 5.0 | 9.0 | 0.00 | 0.00 | 0.00 | 29 | 1022.0 |
| 20260902172209 | 84 | 86 | 5.0 | 9.0 | 0.00 | 0.00 | 0.00 | 30 | 1022.3 |
| 20260902172108 | 84 | 113 | 5.0 | 9.0 | 0.00 | 0.00 | 0.00 | 32 | 1022.2 |
| 20260902172043 | 84 | 136 | 5.0 | 9.0 | 0.00 | 0.00 | 0.00 | 32 | 1022.2 |
| 20260902172011 | 83 | 112 | 5.0 | 9.0 | 0.00 | 0.00 | 0.00 | 31 | 1022.2 |
| 20260902171758 | 83 | 67 | 5.0 | 9.0 | 0.00 | 0.00 | 0.00 | 32 | 1022.3 |
| 20260902171659 | 83 | 143 | 5.0 | 12.0 | 0.00 | 0.00 | 0.00 | 31 | 1022.2 |
| 20260902171559 | 82 | 130 | 5.0 | 12.0 | 0.00 | 0.00 | 0.00 | 31 | 1022.2 |
| 20260902171538 | 82 | 119 | 5.0 | 12.0 | 0.00 | 0.00 | 0.00 | 31 | 1022.2 |
| 20260902171458 | 82 | 87 | 5.0 | 12.0 | 0.00 | 0.00 | 0.00 | 31 | 1022.2 |
| 20260902171358 | 82 | 103 | 5.0 | 12.0 | 0.00 | 0.00 | 0.00 | 33 | 1022.3 |
| 20260902171254 | 82 | 116 | 5.0 | 12.0 | 0.00 | 0.00 | 0.00 | 34 | 1022.2 |
| 20260902171152 | 82 | 167 | 5.0 | 12.0 | 0.00 | 0.00 | 0.00 | 32 | 1022.2 |
| 20260902171138 | 82 | 130 | 5.0 | 12.0 | 0.00 | 0.00 | 0.00 | 34 | 1022.2 |
| 20260902170953 | 82 | 167 | 5.0 | 12.0 | 0.00 | 0.00 | 0.00 | 31 | 1022.3 |
| 20260902170901 | 82 | 62 | 6.0 | 12.0 | 0.00 | 0.00 | 0.00 | 29 | 1022.3 |
| 20260902170558 | 82 | 117 | 6.0 | 12.0 | 0.00 | 0.00 | 0.00 | 31 | 1022.3 |
| 20260902170551 | 81 | 136 | 6.0 | 12.0 | 0.00 | 0.00 | 0.00 | 30 | 1022.3 |
| 20260902170401 | 81 | 104 | 6.0 | 12.0 | 0.00 | 0.00 | 0.00 | 33 | 1022.3 |
| 20260902170019 | 81 | 74 | 6.0 | 12.0 | 0.00 | 0.00 | 0.00 | 32 | 1022.3 |
| 20260902165941 | 81 | 120 | 6.0 | 12.0 | 0.00 | 0.00 | 0.00 | 31 | 1022.3 |
| 20260902165840 | 81 | 98 | 6.0 | 11.0 | 0.00 | 0.00 | 0.00 | 30 | 1022.4 |
| 20260902165736 | 81 | 86 | 6.0 | 12.0 | 0.00 | 0.00 | 0.00 | 32 | 1022.3 |
| 20260902165634 | 81 | 120 | 6.0 | 12.0 | 0.00 | 0.00 | 0.00 | 32 | 1022.3 |
| 20260902165552 | 81 | 113 | 6.0 | 12.0 | 0.00 | 0.00 | 0.00 | 32 | 1022.3 |
| 20260902165545 | 81 | 83 | 6.0 | 12.0 | 0.00 | 0.00 | 0.00 | 32 | 1022.3 |
| 20260902165230 | 81 | 98 | 6.0 | 12.0 | 0.00 | 0.00 | 0.00 | 32 | 1022.3 |
| 20260902165137 | 81 | 127 | 6.0 | 12.0 | 0.00 | 0.00 | 0.00 | 33 | 1022.3 |
| 20260902165007 | 81 | 139 | 6.0 | 12.0 | 0.00 | 0.00 | 0.00 | 35 | 1022.4 |
| 20260902164930 | 81 | 90 | 6.0 | 12.0 | 0.00 | 0.00 | 0.00 | 33 | 1022.3 |
| 20260902164827 | 81 | 130 | 6.0 | 12.0 | 0.00 | 0.00 | 0.00 | 34 | 1022.3 |
| 20260902164724 | 80 | 130 | 6.0 | 11.0 | 0.00 | 0.00 | 0.00 | 35 | 1022.3 |
| 20260902164622 | 80 | 121 | 6.0 | 11.0 | 0.00 | 0.00 | 0.00 | 33 | 1022.4 |
| 20260902164541 | 80 | 114 | 6.0 | 11.0 | 0.00 | 0.00 | 0.00 | 36 | 1022.4 |
| 20260902164534 | 80 | 88 | 6.0 | 11.0 | 0.00 | 0.00 | 0.00 | 37 | 1022.4 |
| 20260902164217 | 80 | 128 | 6.0 | 11.0 | 0.00 | 0.00 | 0.00 | 33 | 1022.4 |
| 20260902164117 | 80 | 123 | 6.0 | 11.0 | 0.00 | 0.00 | 0.00 | 36 | 1022.4 |
| 20260902164016 | 79 | 155 | 6.0 | 11.0 | 0.00 | 0.00 | 0.00 | 34 | 1022.4 |
| 20260902163955 | 79 | 98 | 6.0 | 11.0 | 0.00 | 0.00 | 0.00 | 33 | 1022.4 |
| 20260902163916 | 79 | 120 | 6.0 | 11.0 | 0.00 | 0.00 | 0.00 | 33 | 1022.4 |
| 20260902163816 | 79 | 98 | 6.0 | 11.0 | 0.00 | 0.00 | 0.00 | 36 | 1022.4 |
| 20260902163711 | 79 | 103 | 6.0 | 11.0 | 0.00 | 0.00 | 0.00 | 35 | 1022.4 |
| 20260902163610 | 79 | 81 | 6.0 | 11.0 | 0.00 | 0.00 | 0.00 | 34 | 1022.4 |
| 20260902163511 | 79 | 112 | 5.0 | 11.0 | 0.00 | 0.00 | 0.00 | 35 | 1022.4 |
| 20260902163450 | 79 | 96 | 5.0 | 11.0 | 0.00 | 0.00 | 0.00 | 36 | 1022.4 |
| 20260902163417 | 79 | 113 | 5.0 | 11.0 | 0.00 | 0.00 | 0.00 | 36 | 1022.4 |
| 20260902163205 | 79 | 118 | 5.0 | 10.0 | 0.00 | 0.00 | 0.00 | 37 | 1022.4 |
| 20260902163123 | 79 | 128 | 6.0 | 10.0 | 0.00 | 0.00 | 0.00 | 38 | 1022.4 |
| 20260902163008 | 79 | 116 | 5.0 | 10.0 | 0.00 | 0.00 | 0.00 | 37 | 1022.4 |
| 20260902162805 | 78 | 157 | 6.0 | 10.0 | 0.00 | 0.00 | 0.00 | 37 | 1022.4 |
| 20260902162702 | 78 | 117 | 6.0 | 10.0 | 0.00 | 0.00 | 0.00 | 36 | 1022.4 |
| 20260902162603 | 78 | 100 | 6.0 | 10.0 | 0.00 | 0.00 | 0.00 | 38 | 1022.4 |
| 20260902162512 | 78 | 145 | 6.0 | 10.0 | 0.00 | 0.00 | 0.00 | 38 | 1022.3 |
| 20260902162504 | 78 | 125 | 6.0 | 10.0 | 0.00 | 0.00 | 0.00 | 38 | 1022.4 |
| 20260902162258 | 78 | 103 | 6.0 | 10.0 | 0.00 | 0.00 | 0.00 | 37 | 1022.4 |
| 20260902162159 | 78 | 98 | 5.0 | 10.0 | 0.00 | 0.00 | 0.00 | 37 | 1022.4 |
| 20260902162039 | 78 | 139 | 6.0 | 11.0 | 0.00 | 0.00 | 0.00 | 39 | 1022.4 |
| 20260902161853 | 78 | 124 | 6.0 | 11.0 | 0.00 | 0.00 | 0.00 | 37 | 1022.4 |
| 20260902161752 | 78 | 99 | 6.0 | 11.0 | 0.00 | 0.00 | 0.00 | 39 | 1022.4 |
| 20260902161657 | 78 | 135 | 5.0 | 11.0 | 0.00 | 0.00 | 0.00 | 38 | 1022.4 |
| 20260902161450 | 78 | 146 | 5.0 | 11.0 | 0.00 | 0.00 | 0.00 | 37 | 1022.4 |
| 20260902161426 | 78 | 121 | 5.0 | 11.0 | 0.00 | 0.00 | 0.00 | 37 | 1022.4 |
| 20260902161348 | 78 | 122 | 5.0 | 11.0 | 0.00 | 0.00 | 0.00 | 37 | 1022.4 |
| 20260902161246 | 78 | 121 | 5.0 | 11.0 | 0.00 | 0.00 | 0.00 | 37 | 1022.4 |
| 20260902161147 | 78 | 155 | 5.0 | 11.0 | 0.00 | 0.00 | 0.00 | 38 | 1022.4 |
| 20260902160941 | 78 | 113 | 5.0 | 10.0 | 0.00 | 0.00 | 0.00 | 39 | 1022.4 |
| 20260902160920 | 78 | 136 | 5.0 | 10.0 | 0.00 | 0.00 | 0.00 | 39 | 1022.4 |
| 20260902160841 | 78 | 101 | 5.0 | 10.0 | 0.00 | 0.00 | 0.00 | 39 | 1022.4 |
| 20260902160749 | 77 | 117 | 5.0 | 10.0 | 0.00 | 0.00 | 0.00 | 40 | 1022.4 |
| 20260902160435 | 77 | 107 | 5.0 | 10.0 | 0.00 | 0.00 | 0.00 | 40 | 1022.4 |
| 20260902160414 | 77 | 131 | 5.0 | 10.0 | 0.00 | 0.00 | 0.00 | 40 | 1022.4 |
| 20260902160335 | 77 | 120 | 5.0 | 10.0 | 0.00 | 0.00 | 0.00 | 40 | 1022.4 |
| 20260902160234 | 77 | 128 | 5.0 | 10.0 | 0.00 | 0.00 | 0.00 | 39 | 1022.4 |
| 20260902160128 | 76 | 121 | 5.0 | 10.0 | 0.00 | 0.00 | 0.00 | 40 | 1022.4 |
| 20260902160046 | 76 | 74 | 5.0 | 10.0 | 0.00 | 0.00 | 0.00 | 41 | 1022.5 |
| 20260902155932 | 76 | 157 | 6.0 | 10.0 | 0.00 | 0.00 | 0.00 | 40 | 1022.5 |
| 20260902155728 | 76 | 174 | 6.0 | 11.0 | 0.00 | 0.00 | 0.00 | 40 | 1022.5 |
| 20260902155623 | 76 | 129 | 6.0 | 11.0 | 0.00 | 0.00 | 0.00 | 44 | 1022.4 |
| 20260902155523 | 76 | 128 | 6.0 | 11.0 | 0.00 | 0.00 | 0.00 | 43 | 1022.4 |
| 20260902155443 | 76 | 107 | 6.0 | 11.0 | 0.00 | 0.00 | 0.00 | 41 | 1022.4 |
| 20260902155436 | 76 | 150 | 6.0 | 11.0 | 0.00 | 0.00 | 0.00 | 41 | 1022.4 |
| 20260902155018 | 76 | 136 | 6.0 | 11.0 | 0.00 | 0.00 | 0.00 | 43 | 1022.5 |
| 20260902154930 | 76 | 135 | 6.0 | 11.0 | 0.00 | 0.00 | 0.00 | 41 | 1022.4 |
| 20260902154922 | 76 | 120 | 6.0 | 11.0 | 0.00 | 0.00 | 0.00 | 41 | 1022.4 |
| 20260902154716 | 75 | 140 | 6.0 | 12.0 | 0.00 | 0.00 | 0.00 | 42 | 1022.4 |
| 20260902154615 | 75 | 161 | 6.0 | 12.0 | 0.00 | 0.00 | 0.00 | 40 | 1022.4 |
| 20260902154520 | 75 | 128 | 6.0 | 12.0 | 0.00 | 0.00 | 0.00 | 41 | 1022.3 |
| 20260902154406 | 75 | 155 | 6.0 | 12.0 | 0.00 | 0.00 | 0.00 | 41 | 1022.4 |
| 20260902154312 | 75 | 135 | 6.0 | 12.0 | 0.00 | 0.00 | 0.00 | 42 | 1022.4 |
| 20260902154210 | 75 | 126 | 6.0 | 12.0 | 0.00 | 0.00 | 0.00 | 43 | 1022.4 |
| 20260902154111 | 75 | 149 | 6.0 | 12.0 | 0.00 | 0.00 | 0.00 | 41 | 1022.3 |
| 20260902153909 | 75 | 171 | 5.0 | 12.0 | 0.00 | 0.00 | 0.00 | 40 | 1022.4 |
| 20260902153905 | 75 | 151 | 5.0 | 12.0 | 0.00 | 0.00 | 0.00 | 40 | 1022.4 |
| 20260902153803 | 75 | 93 | 5.0 | 10.0 | 0.00 | 0.00 | 0.00 | 41 | 1022.4 |
| 20260902153702 | 74 | 126 | 5.0 | 10.0 | 0.00 | 0.00 | 0.00 | 42 | 1022.3 |
| 20260902153557 | 74 | 139 | 5.0 | 10.0 | 0.00 | 0.00 | 0.00 | 42 | 1022.4 |
| 20260902153457 | 74 | 136 | 5.0 | 10.0 | 0.00 | 0.00 | 0.00 | 42 | 1022.3 |
| 20260902153406 | 74 | 146 | 5.0 | 10.0 | 0.00 | 0.00 | 0.00 | 43 | 1022.4 |
| 20260902153356 | 74 | 124 | 5.0 | 10.0 | 0.00 | 0.00 | 0.00 | 43 | 1022.4 |
| 20260902153303 | 74 | 149 | 4.0 | 10.0 | 0.00 | 0.00 | 0.00 | 45 | 1022.4 |
| 20260902153056 | 74 | 117 | 5.0 | 9.0 | 0.00 | 0.00 | 0.00 | 44 | 1022.4 |
| 20260902152957 | 74 | 136 | 5.0 | 9.0 | 0.00 | 0.00 | 0.00 | 44 | 1022.4 |
| 20260902152906 | 73 | 98 | 4.0 | 9.0 | 0.00 | 0.00 | 0.00 | 44 | 1022.3 |
| 20260902152857 | 73 | 120 | 4.0 | 9.0 | 0.00 | 0.00 | 0.00 | 44 | 1022.3 |
| 20260902152756 | 73 | 153 | 4.0 | 9.0 | 0.00 | 0.00 | 0.00 | 44 | 1022.4 |
| 20260902152656 | 73 | 128 | 4.0 | 9.0 | 0.00 | 0.00 | 0.00 | 45 | 1022.4 |
| 20260902152557 | 73 | 159 | 4.0 | 9.0 | 0.00 | 0.00 | 0.00 | 45 | 1022.4 |
| 20260902152457 | 72 | 134 | 4.0 | 9.0 | 0.00 | 0.00 | 0.00 | 45 | 1022.3 |
| 20260902152406 | 72 | 142 | 4.0 | 9.0 | 0.00 | 0.00 | 0.00 | 45 | 1022.3 |
| 20260902152356 | 72 | 142 | 4.0 | 9.0 | 0.00 | 0.00 | 0.00 | 45 | 1022.3 |
| 20260902152257 | 72 | 130 | 4.0 | 9.0 | 0.00 | 0.00 | 0.00 | 46 | 1022.3 |
| 20260902152204 | 71 | 94 | 4.0 | 9.0 | 0.00 | 0.00 | 0.00 | 46 | 1022.2 |
| 20260902151957 | 71 | 209 | 4.0 | 10.0 | 0.00 | 0.00 | 0.00 | 47 | 1022.3 |
| 20260902151905 | 71 | 140 | 5.0 | 10.0 | 0.00 | 0.00 | 0.00 | 46 | 1022.3 |
| 20260902151850 | 71 | 144 | 5.0 | 10.0 | 0.00 | 0.00 | 0.00 | 47 | 1022.3 |
| 20260902151751 | 71 | 132 | 5.0 | 10.0 | 0.00 | 0.00 | 0.00 | 47 | 1022.3 |
| 20260902151649 | 70 | 156 | 6.0 | 10.0 | 0.00 | 0.00 | 0.00 | 46 | 1022.2 |
| 20260902151557 | 70 | 148 | 6.0 | 10.0 | 0.00 | 0.00 | 0.00 | 47 | 1022.3 |
| 20260902151406 | 70 | 138 | 5.0 | 10.0 | 0.00 | 0.00 | 0.00 | 46 | 1022.2 |
| 20260902151343 | 70 | 155 | 5.0 | 10.0 | 0.00 | 0.00 | 0.00 | 46 | 1022.2 |
| 20260902151242 | 70 | 157 | 5.0 | 10.0 | 0.00 | 0.00 | 0.00 | 45 | 1022.2 |
| 20260902151142 | 70 | 141 | 5.0 | 10.0 | 0.00 | 0.00 | 0.00 | 46 | 1022.3 |
| 20260902151043 | 70 | 143 | 5.0 | 10.0 | 0.00 | 0.00 | 0.00 | 45 | 1022.3 |
| 20260902150942 | 70 | 161 | 4.0 | 10.0 | 0.00 | 0.00 | 0.00 | 45 | 1022.3 |
| 20260902150903 | 70 | 165 | 4.0 | 10.0 | 0.00 | 0.00 | 0.00 | 45 | 1022.3 |
| 20260902150838 | 70 | 153 | 4.0 | 10.0 | 0.00 | 0.00 | 0.00 | 46 | 1022.3 |
| 20260902150738 | 69 | 170 | 4.0 | 9.0 | 0.00 | 0.00 | 0.00 | 46 | 1022.3 |
| 20260902150638 | 69 | 108 | 3.0 | 8.0 | 0.00 | 0.00 | 0.00 | 47 | 1022.3 |
| 20260902150538 | 69 | 167 | 3.0 | 8.0 | 0.00 | 0.00 | 0.00 | 47 | 1022.2 |
| 20260902150438 | 69 | 163 | 4.0 | 8.0 | 0.00 | 0.00 | 0.00 | 48 | 1022.3 |
| 20260902150402 | 69 | 180 | 4.0 | 8.0 | 0.00 | 0.00 | 0.00 | 48 | 1022.3 |
| 20260902150345 | 69 | 149 | 4.0 | 8.0 | 0.00 | 0.00 | 0.00 | 48 | 1022.3 |
| 20260902150138 | 69 | 121 | 4.0 | 7.0 | 0.00 | 0.00 | 0.00 | 47 | 1022.3 |
| 20260902150038 | 69 | 131 | 4.0 | 7.0 | 0.00 | 0.00 | 0.00 | 48 | 1022.3 |
| 20260902150009 | 69 | 148 | 4.0 | 7.0 | 0.00 | 0.00 | 0.00 | 48 | 1022.3 |
| 20260902145839 | 68 | 161 | 4.0 | 7.0 | 0.00 | 0.00 | 0.00 | 49 | 1022.4 |
| 20260902145736 | 68 | 169 | 4.0 | 7.0 | 0.00 | 0.00 | 0.00 | 48 | 1022.3 |
| 20260902145643 | 68 | 141 | 4.0 | 7.0 | 0.00 | 0.00 | 0.00 | 47 | 1022.4 |
| 20260902145444 | 0 | 142 | 4.0 | 7.0 | 0.00 | 0.00 | 0.00 | 1022.3 | |
| 20260902145438 | 0 | 157 | 4.0 | 8.0 | 0.00 | 0.00 | 0.00 | 1022.3 | |
| 20260902145234 | 0 | 167 | 4.0 | 8.0 | 0.00 | 0.00 | 0.00 | 1022.3 | |
| 20260902145156 | 0 | 178 | 4.0 | 8.0 | 0.00 | 0.00 | 0.00 | 1022.2 | |
| 20260902144936 | 0 | 165 | 4.0 | 8.0 | 0.00 | 0.00 | 0.00 | 1022.3 | |
| 20260902144730 | 0 | 125 | 4.0 | 8.0 | 0.00 | 0.00 | 0.00 | 1022.3 | |
| 20260902144630 | 0 | 139 | 4.0 | 8.0 | 0.00 | 0.00 | 0.00 | 1022.2 | |
| 20260902144530 | 0 | 136 | 4.0 | 8.0 | 0.00 | 0.00 | 0.00 | 1022.2 | |
| 20260902144431 | 0 | 167 | 4.0 | 8.0 | 0.00 | 0.00 | 0.00 | 1022.3 | |
| 20260902144400 | 0 | 145 | 4.0 | 7.0 | 0.00 | 0.00 | 0.00 | 1022.3 | |
| 20260902144331 | 0 | 124 | 3.0 | 7.0 | 0.00 | 0.00 | 0.00 | 1022.3 | |
| 20260902144231 | 0 | 154 | 3.0 | 7.0 | 0.00 | 0.00 | 0.00 | 1022.3 | |
| 20260902144128 | 0 | 176 | 3.0 | 7.0 | 0.00 | 0.00 | 0.00 | 1022.3 | |
| 20260902144029 | 0 | 137 | 3.0 | 7.0 | 0.00 | 0.00 | 0.00 | 1022.2 | |
| 20260902143940 | 0 | 150 | 3.0 | 7.0 | 0.00 | 0.00 | 0.00 | 1022.3 | |
| 20260902143933 | 0 | 167 | 3.0 | 7.0 | 0.00 | 0.00 | 0.00 | 1022.3 | |
| 20260902143729 | 0 | 134 | 3.0 | 7.0 | 0.00 | 0.00 | 0.00 | 1022.3 | |
| 20260902143635 | 0 | 112 | 3.0 | 7.0 | 0.00 | 0.00 | 0.00 | 1022.3 | |
| 20260902143428 | 0 | 141 | 3.0 | 7.0 | 0.00 | 0.00 | 0.00 | 1022.3 | |
| 20260902143356 | 0 | 130 | 3.0 | 7.0 | 0.00 | 0.00 | 0.00 | 1022.3 | |
| 20260902143327 | 0 | 167 | 4.0 | 7.0 | 0.00 | 0.00 | 0.00 | 1022.3 | |
| 20260902143228 | 0 | 118 | 4.0 | 7.0 | 0.00 | 0.00 | 0.00 | 1022.3 | |
| 20260902143127 | 0 | 154 | 4.0 | 8.0 | 0.00 | 0.00 | 0.00 | 1022.3 | |
| 20260902143026 | 0 | 123 | 4.0 | 9.0 | 0.00 | 0.00 | 0.00 | 1022.3 | |
| 20260902142937 | 0 | 136 | 4.0 | 9.0 | 0.00 | 0.00 | 0.00 | 1022.3 | |
| 20260902142931 | 0 | 146 | 4.0 | 9.0 | 0.00 | 0.00 | 0.00 | 1022.3 | |
| 20260902142724 | 0 | 146 | 4.0 | 9.0 | 0.00 | 0.00 | 0.00 | 1022.3 | |
| 20260902142625 | 0 | 140 | 4.0 | 9.0 | 0.00 | 0.00 | 0.00 | 1022.3 | |
| 20260902142529 | 0 | 169 | 4.0 | 9.0 | 0.00 | 0.00 | 0.00 | 1022.3 | |
| 20260902142354 | 0 | 128 | 4.0 | 9.0 | 0.00 | 0.00 | 0.00 | 1022.3 | |
| 20260902142321 | 0 | 172 | 3.0 | 9.0 | 0.00 | 0.00 | 0.00 | 1022.3 | |
| 20260902142220 | 0 | 152 | 4.0 | 9.0 | 0.00 | 0.00 | 0.00 | 1022.3 | |
| 20260902142118 | 0 | 161 | 3.0 | 9.0 | 0.00 | 0.00 | 0.00 | 1022.3 | |
| 20260902142018 | 0 | 178 | 3.0 | 7.0 | 0.00 | 0.00 | 0.00 | 1022.3 | |
| 20260902141917 | 0 | 142 | 4.0 | 7.0 | 0.00 | 0.00 | 0.00 | 1022.3 | |
| 20260902141854 | 0 | 133 | 4.0 | 7.0 | 0.00 | 0.00 | 0.00 | 1022.3 | |
| 20260902141814 | 0 | 184 | 4.0 | 7.0 | 0.00 | 0.00 | 0.00 | 1022.3 | |
| 20260902141714 | 0 | 161 | 3.0 | 7.0 | 0.00 | 0.00 | 0.00 | 1022.3 | |
| 20260902141621 | 0 | 159 | 3.0 | 6.0 | 0.00 | 0.00 | 0.00 | 1022.2 | |
| 20260902141439 | 0 | 150 | 3.0 | 6.0 | 0.00 | 0.00 | 0.00 | 1022.3 | |
| 20260902141433 | 0 | 157 | 3.0 | 6.0 | 0.00 | 0.00 | 0.00 | 1022.3 | |
| 20260902141014 | 0 | 139 | 2.0 | 6.0 | 0.00 | 0.00 | 0.00 | 1022.3 | |
| 20260902140914 | 0 | 99 | 2.0 | 6.0 | 0.00 | 0.00 | 0.00 | 1022.2 | |
| 20260902140850 | 0 | 93 | 2.0 | 6.0 | 0.00 | 0.00 | 0.00 | 1022.2 | |
| 20260902140816 | 0 | 90 | 2.0 | 6.0 | 0.00 | 0.00 | 0.00 | 1022.3 | |
| 20260902140608 | 0 | 87 | 2.0 | 6.0 | 0.00 | 0.00 | 0.00 | 1022.0 | |
| 20260902140601 | 0 | 149 | 2.0 | 6.0 | 0.00 | 0.00 | 0.00 | 1022.2 | |
| 20260902140300 | 0 | 172 | 2.0 | 5.0 | 0.00 | 0.00 | 0.00 | 1022.2 | |
| 20260902140205 | 0 | 196 | 2.0 | 4.0 | 0.00 | 0.00 | 0.00 | 1022.2 | |
| 20260902140019 | 0 | 196 | 2.0 | 4.0 | 0.00 | 0.00 | 0.00 | 1022.0 | |
| 20260902135905 | 0 | 196 | 2.0 | 4.0 | 0.00 | 0.00 | 0.00 | 1022.2 | |
| 20260902135554 | 0 | 196 | 2.0 | 5.0 | 0.00 | 0.00 | 0.00 | 1022.3 | |
| 20260902135454 | 0 | 185 | 2.0 | 6.0 | 0.00 | 0.00 | 0.00 | 1022.3 | |
| 20260902135346 | 0 | 209 | 2.0 | 6.0 | 0.00 | 0.00 | 0.00 | 1022.3 | |
| 20260902135253 | 0 | 216 | 2.0 | 6.0 | 0.00 | 0.00 | 0.00 | 1022.3 | |
| 20260902135152 | 0 | 201 | 2.0 | 6.0 | 0.00 | 0.00 | 0.00 | 1022.3 | |
| 20260902135052 | 0 | 215 | 2.0 | 6.0 | 0.00 | 0.00 | 0.00 | 1022.4 | |
| 20260902134953 | 0 | 200 | 2.0 | 6.0 | 0.00 | 0.00 | 0.00 | 1022.3 | |
| 20260902134844 | 0 | 200 | 3.0 | 6.0 | 0.00 | 0.00 | 0.00 | 1022.3 | |
| 20260902134750 | 0 | 196 | 3.0 | 6.0 | 0.00 | 0.00 | 0.00 | 1022.3 | |
| 20260902134650 | 0 | 187 | 3.0 | 6.0 | 0.00 | 0.00 | 0.00 | 1022.3 | |
| 20260902134551 | 0 | 168 | 2.0 | 6.0 | 0.00 | 0.00 | 0.00 | 1022.4 | |
| 20260902134447 | 0 | 154 | 3.0 | 6.0 | 0.00 | 0.00 | 0.00 | 1022.4 | |
| 20260902134346 | 0 | 158 | 3.0 | 6.0 | 0.00 | 0.00 | 0.00 | 1022.3 | |
| 20260902134246 | 0 | 184 | 3.0 | 7.0 | 0.00 | 0.00 | 0.00 | 1022.3 | |
| 20260902134036 | 0 | 184 | 3.0 | 7.0 | 0.00 | 0.00 | 0.00 | 1022.3 | |
| 20260902133934 | 0 | 144 | 3.0 | 7.0 | 0.00 | 0.00 | 0.00 | 1022.4 | |
| 20260902133839 | 0 | 144 | 3.0 | 7.0 | 0.00 | 0.00 | 0.00 | 1022.3 | |
| 20260902133833 | 0 | 144 | 3.0 | 8.0 | 0.00 | 0.00 | 0.00 | 1022.3 | |
| 20260902133626 | 0 | 176 | 3.0 | 8.0 | 0.00 | 0.00 | 0.00 | 1022.3 | |
| 20260902133526 | 0 | 160 | 2.0 | 8.0 | 0.00 | 0.00 | 0.00 | 1022.3 | |
| 20260902133427 | 0 | 176 | 2.0 | 8.0 | 0.00 | 0.00 | 0.00 | 1022.3 | |
| 20260902133338 | 0 | 175 | 2.0 | 8.0 | 0.00 | 0.00 | 0.00 | 1022.3 | |
| 20260902133327 | 0 | 190 | 2.0 | 8.0 | 0.00 | 0.00 | 0.00 | 1022.3 | |
| 20260902133226 | 0 | 193 | 1.0 | 8.0 | 0.00 | 0.00 | 0.00 | 1022.3 | |
| 20260902133122 | 0 | 163 | 1.0 | 8.0 | 0.00 | 0.00 | 0.00 | 1022.3 | |
| 20260902133020 | 0 | 142 | 1.0 | 8.0 | 0.00 | 0.00 | 0.00 | 1022.0 | |
| 20260902132935 | 0 | 148 | 1.0 | 8.0 | 0.00 | 0.00 | 0.00 | 1022.2 | |
| 20260902132929 | 0 | 165 | 1.0 | 8.0 | 0.00 | 0.00 | 0.00 | 1022.0 | |
| 20260902132618 | 0 | 338 | 2.0 | 5.0 | 0.00 | 0.00 | 0.00 | 1022.0 | |
| 20260902132518 | 0 | 355 | 2.0 | 5.0 | 0.00 | 0.00 | 0.00 | 1022.0 | |
| 20260902132419 | 0 | 355 | 3.0 | 5.0 | 0.00 | 0.00 | 0.00 | 1021.9 | |
| 20260902132338 | 0 | 315 | 3.0 | 5.0 | 0.00 | 0.00 | 0.00 | 1021.9 | |
| 20260902132317 | 0 | 315 | 3.0 | 5.0 | 0.00 | 0.00 | 0.00 | 1022.0 | |
| 20260902132216 | 0 | 249 | 3.0 | 5.0 | 0.00 | 0.00 | 0.00 | 1021.9 | |
| 20260902132116 | 0 | 249 | 3.0 | 5.0 | 0.00 | 0.00 | 0.00 | 1022.0 | |
| 20260902132016 | 0 | 249 | 2.0 | 5.0 | 0.00 | 0.00 | 0.00 | 1021.9 | |
| 20260902131943 | 0 | 249 | 2.0 | 5.0 | 0.00 | 0.00 | 0.00 | 1021.9 | |
| 20260902131807 | 0 | 86 | 2.0 | 4.0 | 0.00 | 0.00 | 0.00 | 1021.9 | |
| 20260902131707 | 0 | 86 | 2.0 | 4.0 | 0.00 | 0.00 | 0.00 | 1021.8 | |
| 20260902131604 | 0 | 86 | 2.0 | 4.0 | 0.00 | 0.00 | 0.00 | 1021.8 | |
| 20260902131503 | 0 | 86 | 1.0 | 4.0 | 0.00 | 0.00 | 0.00 | 1021.8 | |
| 20260902131413 | 0 | 86 | 1.0 | 4.0 | 0.00 | 0.00 | 0.00 | 1021.8 | |
| 20260902131406 | 0 | 86 | 1.0 | 3.0 | 0.00 | 0.00 | 0.00 | 1021.8 | |
| 20260902131202 | 0 | 156 | 1.0 | 3.0 | 0.00 | 0.00 | 0.00 | 1021.8 | |
| 20260902131102 | 0 | 156 | 1.0 | 3.0 | 0.00 | 0.00 | 0.00 | 1021.9 | |
| 20260902131009 | 0 | 156 | 1.0 | 3.0 | 0.00 | 0.00 | 0.00 | 1021.8 | |
| 20260902130835 | 0 | 64 | 1.0 | 3.0 | 0.00 | 0.00 | 0.00 | 1021.8 | |
| 20260902130809 | 0 | 64 | 1.0 | 3.0 | 0.00 | 0.00 | 0.00 | 1021.8 | |
| 20260902130612 | 0 | 64 | 1.0 | 3.0 | 0.00 | 0.00 | 0.00 | 1021.8 | |
| 20260902130335 | 0 | 64 | 1.0 | 3.0 | 0.00 | 0.00 | 0.00 | 1021.8 | |
| 20260902130304 | 0 | 64 | 1.0 | 3.0 | 0.00 | 0.00 | 0.00 | 1021.8 | |
| 20260902130058 | 0 | 64 | 2.0 | 4.0 | 0.00 | 0.00 | 0.00 | 1021.8 | |
| 20260902130003 | 0 | 64 | 2.0 | 5.0 | 0.00 | 0.00 | 0.00 | 1021.8 | |
| 20260902125836 | 0 | 64 | 2.0 | 5.0 | 0.00 | 0.00 | 0.00 | 1021.8 | |
| 20260902125756 | 0 | 64 | 2.0 | 5.0 | 0.00 | 0.00 | 0.00 | 1021.8 | |
| 20260902125657 | 0 | 64 | 2.0 | 5.0 | 0.00 | 0.00 | 0.00 | 1021.8 | |
| 20260902125556 | 0 | 64 | 2.0 | 5.0 | 0.00 | 0.00 | 0.00 | 1021.8 | |
| 20260902125456 | 0 | 264 | 2.0 | 5.0 | 0.00 | 0.00 | 0.00 | 1021.8 | |
| 20260902125442 | 0 | 264 | 2.0 | 5.0 | 0.00 | 0.00 | 0.00 | 1021.8 | |
| 20260902125253 | 0 | 264 | 2.0 | 5.0 | 0.00 | 0.00 | 0.00 | 1021.7 | |
| 20260902125153 | 0 | 231 | 3.0 | 5.0 | 0.00 | 0.00 | 0.00 | 1021.8 | |
| 20260902125050 | 0 | 215 | 3.0 | 5.0 | 0.00 | 0.00 | 0.00 | 1021.8 | |
| 20260902124949 | 0 | 244 | 2.0 | 5.0 | 0.00 | 0.00 | 0.00 | 1021.7 | |
| 20260902124938 | 0 | 244 | 3.0 | 5.0 | 0.00 | 0.00 | 0.00 | 1021.7 | |
| 20260902124746 | 0 | 244 | 3.0 | 5.0 | 0.00 | 0.00 | 0.00 | 1021.6 | |
| 20260902124652 | 0 | 244 | 3.0 | 5.0 | 0.00 | 0.00 | 0.00 | 1021.6 | |
| 20260902124500 | 0 | 244 | 2.0 | 5.0 | 0.00 | 0.00 | 0.00 | 1021.6 | |
| 20260902124453 | 0 | 254 | 2.0 | 5.0 | 0.00 | 0.00 | 0.00 | 1021.6 | |
| 20260902124142 | 0 | 223 | 2.0 | 4.0 | 0.00 | 0.00 | 0.00 | 1021.6 | |
| 20260902124043 | 0 | 235 | 2.0 | 4.0 | 0.00 | 0.00 | 0.00 | 1021.6 | |
| 20260902123942 | 0 | 235 | 2.0 | 4.0 | 0.00 | 0.00 | 0.00 | 1021.6 | |
| 20260902123842 | 0 | 235 | 2.0 | 4.0 | 0.00 | 0.00 | 0.00 | 1021.6 | |
| 20260902123831 | 0 | 235 | 1.0 | 4.0 | 0.00 | 0.00 | 0.00 | 1021.7 | |
| 20260902123742 | 0 | 235 | 1.0 | 4.0 | 0.00 | 0.00 | 0.00 | 1021.7 | |
| 20260902123648 | 0 | 231 | 1.0 | 4.0 | 0.00 | 0.00 | 0.00 | 1021.6 | |
| 20260902123442 | 0 | 165 | 2.0 | 4.0 | 0.00 | 0.00 | 0.00 | 1021.6 | |
| 20260902123353 | 0 | 165 | 2.0 | 4.0 | 0.00 | 0.00 | 0.00 | 1021.6 | |
| 20260902123346 | 0 | 165 | 1.0 | 4.0 | 0.00 | 0.00 | 0.00 | 1021.7 | |
| 20260902123142 | 0 | 165 | 1.0 | 4.0 | 0.00 | 0.00 | 0.00 | 1021.7 | |
| 20260902123042 | 0 | 165 | 1.0 | 4.0 | 0.00 | 0.00 | 0.00 | 1021.7 | |
| 20260902122941 | 0 | 165 | 1.0 | 4.0 | 0.00 | 0.00 | 0.00 | 1021.7 | |
| 20260902122934 | 0 | 165 | 1.0 | 4.0 | 0.00 | 0.00 | 0.00 | 1021.6 | |
| 20260902122735 | 0 | 165 | 1.0 | 4.0 | 0.00 | 0.00 | 0.00 | 1021.6 | |
| 20260902122635 | 0 | 165 | 1.0 | 4.0 | 0.00 | 0.00 | 0.00 | 1021.6 | |
| 20260902122534 | 0 | 165 | 0.0 | 4.0 | 0.00 | 0.00 | 0.00 | 1021.6 | |
| 20260902122450 | 0 | 165 | 0.0 | 4.0 | 0.00 | 0.00 | 0.00 | 1021.6 | |
| 20260902122444 | 0 | 298 | 0.0 | 2.0 | 0.00 | 0.00 | 0.00 | 1021.5 | |
| 20260902122130 | 0 | 298 | 0.0 | 2.0 | 0.00 | 0.00 | 0.00 | 1021.5 | |
| 20260902122036 | 0 | 298 | 0.0 | 2.0 | 0.00 | 0.00 | 0.00 | 1021.6 | |
| 20260902121834 | 0 | 298 | 1.0 | 3.0 | 0.00 | 0.00 | 0.00 | 1021.5 | |
| 20260902121630 | 0 | 298 | 1.0 | 4.0 | 0.00 | 0.00 | 0.00 | 1021.6 | |
| 20260902121531 | 0 | 298 | 1.0 | 4.0 | 0.00 | 0.00 | 0.00 | 1021.5 | |
| 20260902121430 | 0 | 298 | 1.0 | 4.0 | 0.00 | 0.00 | 0.00 | 1021.6 | |
| 20260902121323 | 0 | 298 | 1.0 | 4.0 | 0.00 | 0.00 | 0.00 | 1021.5 | |
| 20260902121230 | 0 | 298 | 1.0 | 4.0 | 0.00 | 0.00 | 0.00 | 1021.6 | |
| 20260902121137 | 0 | 298 | 1.0 | 4.0 | 0.00 | 0.00 | 0.00 | 1021.6 | |
| 20260902120937 | 0 | 298 | 1.0 | 4.0 | 0.00 | 0.00 | 0.00 | 1021.6 | |
| 20260902120823 | 0 | 196 | 1.0 | 4.0 | 0.00 | 0.00 | 0.00 | 1021.6 | |
| 20260902120730 | 0 | 196 | 1.0 | 4.0 | 0.00 | 0.00 | 0.00 | 1021.5 | |
| 20260902120628 | 0 | 196 | 1.0 | 4.0 | 0.00 | 0.00 | 0.00 | 1021.6 | |
| 20260902120526 | 0 | 166 | 1.0 | 4.0 | 0.00 | 0.00 | 0.00 | 1021.6 | |
| 20260902120427 | 0 | 166 | 1.0 | 4.0 | 0.00 | 0.00 | 0.00 | 1021.5 | |
| 20260902120326 | 0 | 166 | 1.0 | 4.0 | 0.00 | 0.00 | 0.00 | 1021.6 | |
| 20260902120223 | 0 | 166 | 1.0 | 4.0 | 0.00 | 0.00 | 0.00 | 1021.5 | |
| 20260902120120 | 0 | 166 | 1.0 | 4.0 | 0.00 | 0.00 | 0.00 | 1021.5 | |
| 20260902120035 | 0 | 166 | 1.0 | 4.0 | 0.00 | 0.00 | 0.00 | 1021.6 | |
| 20260902120028 | 0 | 166 | 1.0 | 3.0 | 0.00 | 0.00 | 0.00 | 1021.5 | |
| 20260902115716 | 0 | 248 | 0.0 | 2.0 | 0.00 | 0.00 | 0.00 | 1021.5 | |
| 20260902115616 | 0 | 248 | 0.0 | 2.0 | 0.00 | 0.00 | 0.00 | 1021.5 | |
| 20260902115516 | 0 | 248 | 0.0 | 2.0 | 0.00 | 0.00 | 0.00 | 1021.3 | |
| 20260902115416 | 0 | 248 | 0.0 | 2.0 | 0.00 | 0.00 | 0.00 | 1021.3 | |
| 20260902115316 | 0 | 248 | 0.0 | 2.0 | 0.00 | 0.00 | 0.00 | 1021.2 | |
| 20260902115216 | 0 | 248 | 1.0 | 2.0 | 0.00 | 0.00 | 0.00 | 1021.3 | |
| 20260902115116 | 0 | 248 | 1.0 | 3.0 | 0.00 | 0.00 | 0.00 | 1021.3 | |
| 20260902115016 | 0 | 248 | 1.0 | 4.0 | 0.00 | 0.00 | 0.00 | 1021.3 | |
| 20260902114912 | 0 | 248 | 1.0 | 4.0 | 0.00 | 0.00 | 0.00 | 1021.3 | |
| 20260902114819 | 0 | 248 | 1.0 | 4.0 | 0.00 | 0.00 | 0.00 | 1021.2 | |
| 20260902114618 | 0 | 248 | 1.0 | 4.0 | 0.00 | 0.00 | 0.00 | 1021.2 | |
| 20260902114412 | 0 | 248 | 1.0 | 4.0 | 0.00 | 0.00 | 0.00 | 1021.2 | |
| 20260902114312 | 0 | 248 | 2.0 | 4.0 | 0.00 | 0.00 | 0.00 | 1021.2 | |
| 20260902114212 | 0 | 248 | 2.0 | 4.0 | 0.00 | 0.00 | 0.00 | 1021.3 | |
| 20260902114112 | 0 | 248 | 2.0 | 4.0 | 0.00 | 0.00 | 0.00 | 1021.3 | |
| 20260902114010 | 0 | 248 | 2.0 | 4.0 | 0.00 | 0.00 | 0.00 | 1021.3 | |
| 20260902113907 | 0 | 128 | 2.0 | 4.0 | 0.00 | 0.00 | 0.00 | 1021.3 | |
| 20260902113806 | 0 | 128 | 2.0 | 4.0 | 0.00 | 0.00 | 0.00 | 1021.3 | |
| 20260902113710 | 0 | 128 | 2.0 | 4.0 | 0.00 | 0.00 | 0.00 | 1021.3 | |
| 20260902113502 | 0 | 128 | 2.0 | 4.0 | 0.00 | 0.00 | 0.00 | 1021.3 | |
| 20260902113408 | 0 | 128 | 2.0 | 4.0 | 0.00 | 0.00 | 0.00 | 1021.2 | |
| 20260902113203 | 0 | 128 | 2.0 | 4.0 | 0.00 | 0.00 | 0.00 | 1021.2 | |
| 20260902113053 | 0 | 128 | 2.0 | 4.0 | 0.00 | 0.00 | 0.00 | 1021.2 | |
| 20260902112955 | 0 | 123 | 1.0 | 4.0 | 0.00 | 0.00 | 0.00 | 1021.2 | |
| 20260902112818 | 0 | 302 | 1.0 | 4.0 | 0.00 | 0.00 | 0.00 | 1021.2 | |
| 20260902112745 | 0 | 302 | 1.0 | 3.0 | 0.00 | 0.00 | 0.00 | 1021.2 | |
| 20260902112646 | 0 | 302 | 1.0 | 2.0 | 0.00 | 0.00 | 0.00 | 1021.2 | |
| 20260902112544 | 0 | 302 | 0.0 | 1.0 | 0.00 | 0.00 | 0.00 | 1021.2 | |
| 20260902112444 | 59 | 302 | 0.0 | 1.0 | 0.00 | 0.00 | 0.00 | 60 | 1021.3 |
| 20260902112346 | 59 | 302 | 0.0 | 2.0 | 0.00 | 0.00 | 0.00 | 60 | 1021.3 |
| 20260902112140 | 59 | 302 | 0.0 | 2.0 | 0.00 | 0.00 | 0.00 | 60 | 1021.3 |
| 20260902112040 | 59 | 302 | 1.0 | 4.0 | 0.00 | 0.00 | 0.00 | 60 | 1021.3 |
| 20260902111940 | 59 | 302 | 1.0 | 5.0 | 0.00 | 0.00 | 0.00 | 60 | 1021.3 |
| 20260902111922 | 59 | 302 | 1.0 | 5.0 | 0.00 | 0.00 | 0.00 | 60 | 1021.3 |
| 20260902111738 | 59 | 302 | 1.0 | 5.0 | 0.00 | 0.00 | 0.00 | 60 | 1021.5 |
| 20260902111638 | 59 | 302 | 1.0 | 5.0 | 0.00 | 0.00 | 0.00 | 60 | 1021.3 |
| 20260902111537 | 59 | 302 | 2.0 | 5.0 | 0.00 | 0.00 | 0.00 | 60 | 1021.3 |
| 20260902111434 | 59 | 302 | 2.0 | 5.0 | 0.00 | 0.00 | 0.00 | 60 | 1021.5 |
| 20260902111314 | 59 | 302 | 2.0 | 5.0 | 0.00 | 0.00 | 0.00 | 60 | 1021.5 |
| 20260902111231 | 59 | 302 | 2.0 | 5.0 | 0.00 | 0.00 | 0.00 | 60 | 1021.5 |
| 20260902111130 | 59 | 302 | 2.0 | 5.0 | 0.00 | 0.00 | 0.00 | 60 | 1021.5 |
| 20260902111029 | 59 | 302 | 2.0 | 5.0 | 0.00 | 0.00 | 0.00 | 60 | 1021.5 |
| 20260902110930 | 59 | 323 | 2.0 | 4.0 | 0.00 | 0.00 | 0.00 | 60 | 1021.5 |
| 20260902110811 | 59 | 130 | 2.0 | 4.0 | 0.00 | 0.00 | 0.00 | 60 | 1021.3 |
| 20260902110726 | 59 | 130 | 2.0 | 4.0 | 0.00 | 0.00 | 0.00 | 60 | 1021.2 |
| 20260902110622 | 59 | 130 | 2.0 | 4.0 | 0.00 | 0.00 | 0.00 | 60 | 1021.3 |
| 20260902110528 | 59 | 130 | 2.0 | 4.0 | 0.00 | 0.00 | 0.00 | 60 | 1021.2 |
| 20260902110310 | 59 | 130 | 2.0 | 4.0 | 0.00 | 0.00 | 0.00 | 61 | 1021.2 |
| 20260902110219 | 59 | 130 | 2.0 | 4.0 | 0.00 | 0.00 | 0.00 | 61 | 1021.2 |
| 20260902110118 | 59 | 130 | 2.0 | 4.0 | 0.00 | 0.00 | 0.00 | 62 | 1021.2 |
| 20260902110016 | 59 | 130 | 2.0 | 4.0 | 0.00 | 0.00 | 0.00 | 61 | 1021.2 |
| 20260902105939 | 59 | 134 | 2.0 | 4.0 | 0.00 | 0.00 | 0.00 | 62 | 1021.2 |
| 20260902105825 | 59 | 112 | 2.0 | 4.0 | 0.00 | 0.00 | 0.00 | 61 | 1021.2 |
| 20260902105514 | 59 | 19 | 2.0 | 4.0 | 0.00 | 0.00 | 0.00 | 61 | 1021.2 |
| 20260902105414 | 59 | 19 | 2.0 | 4.0 | 0.00 | 0.00 | 0.00 | 61 | 1021.2 |
| 20260902105309 | 59 | 19 | 1.0 | 4.0 | 0.00 | 0.00 | 0.00 | 61 | 1021.2 |
| 20260902105214 | 59 | 19 | 1.0 | 4.0 | 0.00 | 0.00 | 0.00 | 60 | 1021.2 |
| 20260902105120 | 59 | 323 | 1.0 | 4.0 | 0.00 | 0.00 | 0.00 | 60 | 1021.2 |
| 20260902104913 | 59 | 323 | 1.0 | 4.0 | 0.00 | 0.00 | 0.00 | 60 | 1021.2 |
| 20260902104809 | 59 | 309 | 0.0 | 4.0 | 0.00 | 0.00 | 0.00 | 60 | 1021.2 |
| 20260902104730 | 59 | 286 | 0.0 | 2.0 | 0.00 | 0.00 | 0.00 | 60 | 1021.2 |
| 20260902104317 | 59 | 286 | 1.0 | 2.0 | 0.00 | 0.00 | 0.00 | 59 | 1021.2 |
| 20260902104108 | 60 | 286 | 1.0 | 3.0 | 0.00 | 0.00 | 0.00 | 59 | 1021.2 |
| 20260902104007 | 60 | 286 | 1.0 | 3.0 | 0.00 | 0.00 | 0.00 | 59 | 1021.2 |
| 20260902103906 | 60 | 286 | 1.0 | 3.0 | 0.00 | 0.00 | 0.00 | 59 | 1021.2 |
| 20260902103803 | 60 | 286 | 1.0 | 3.0 | 0.00 | 0.00 | 0.00 | 60 | 1021.2 |
| 20260902103704 | 60 | 286 | 1.0 | 3.0 | 0.00 | 0.00 | 0.00 | 59 | 1021.1 |
| 20260902103458 | 60 | 286 | 1.0 | 3.0 | 0.00 | 0.00 | 0.00 | 58 | 1021.1 |
| 20260902103409 | 60 | 286 | 1.0 | 3.0 | 0.00 | 0.00 | 0.00 | 57 | 1021.1 |
| 20260902103402 | 60 | 286 | 1.0 | 3.0 | 0.00 | 0.00 | 0.00 | 57 | 1021.1 |
| 20260902103154 | 60 | 286 | 1.0 | 2.0 | 0.00 | 0.00 | 0.00 | 56 | 1021.1 |
| 20260902103052 | 60 | 286 | 1.0 | 3.0 | 0.00 | 0.00 | 0.00 | 56 | 1021.1 |
| 20260902103009 | 60 | 286 | 1.0 | 3.0 | 0.00 | 0.00 | 0.00 | 56 | 1021.1 |
| 20260902102751 | 60 | 286 | 1.0 | 3.0 | 0.00 | 0.00 | 0.00 | 56 | 1021.1 |
| 20260902102650 | 60 | 286 | 1.0 | 3.0 | 0.00 | 0.00 | 0.00 | 56 | 1021.1 |
| 20260902102618 | 60 | 286 | 1.0 | 3.0 | 0.00 | 0.00 | 0.00 | 56 | 1021.1 |
| 20260902102357 | 60 | 286 | 1.0 | 3.0 | 0.00 | 0.00 | 0.00 | 57 | 1021.1 |
| 20260902102044 | 60 | 286 | 1.0 | 3.0 | 0.00 | 0.00 | 0.00 | 56 | 1021.1 |
| 20260902101944 | 61 | 286 | 1.0 | 3.0 | 0.00 | 0.00 | 0.00 | 56 | 1021.1 |
| 20260902101842 | 61 | 286 | 1.0 | 3.0 | 0.00 | 0.00 | 0.00 | 56 | 1021.1 |
| 20260902101740 | 61 | 286 | 1.0 | 3.0 | 0.00 | 0.00 | 0.00 | 56 | 1021.0 |
| 20260902101638 | 60 | 286 | 1.0 | 3.0 | 0.00 | 0.00 | 0.00 | 56 | 1021.1 |
| 20260902101538 | 60 | 286 | 1.0 | 3.0 | 0.00 | 0.00 | 0.00 | 56 | 1021.1 |
| 20260902101437 | 60 | 286 | 1.0 | 3.0 | 0.00 | 0.00 | 0.00 | 57 | 1021.1 |
| 20260902101336 | 60 | 286 | 1.0 | 3.0 | 0.00 | 0.00 | 0.00 | 56 | 1021.1 |
| 20260902101233 | 60 | 286 | 1.0 | 3.0 | 0.00 | 0.00 | 0.00 | 56 | 1021.1 |
| 20260902101133 | 60 | 286 | 1.0 | 4.0 | 0.00 | 0.00 | 0.00 | 56 | 1021.1 |
| 20260902101031 | 60 | 286 | 1.0 | 4.0 | 0.00 | 0.00 | 0.00 | 56 | 1021.1 |
| 20260902100932 | 60 | 286 | 1.0 | 4.0 | 0.00 | 0.00 | 0.00 | 56 | 1021.0 |
| 20260902100839 | 60 | 286 | 2.0 | 4.0 | 0.00 | 0.00 | 0.00 | 56 | 1021.0 |
| 20260902100832 | 60 | 286 | 2.0 | 4.0 | 0.00 | 0.00 | 0.00 | 55 | 1021.0 |
| 20260902100628 | 60 | 286 | 2.0 | 6.0 | 0.00 | 0.00 | 0.00 | 55 | 1021.1 |
| 20260902100526 | 60 | 286 | 3.0 | 6.0 | 0.00 | 0.00 | 0.00 | 55 | 1021.1 |
| 20260902100430 | 60 | 286 | 3.0 | 7.0 | 0.00 | 0.00 | 0.00 | 55 | 1021.0 |
| 20260902100221 | 60 | 286 | 4.0 | 7.0 | 0.00 | 0.00 | 0.00 | 55 | 1021.0 |
| 20260902100118 | 60 | 286 | 4.0 | 7.0 | 0.00 | 0.00 | 0.00 | 55 | 1021.0 |
| 20260902100024 | 60 | 286 | 4.0 | 7.0 | 0.00 | 0.00 | 0.00 | 55 | 1021.1 |
| 20260902095827 | 60 | 286 | 4.0 | 7.0 | 0.00 | 0.00 | 0.00 | 55 | 1021.0 |
| 20260902095715 | 60 | 262 | 3.0 | 7.0 | 0.00 | 0.00 | 0.00 | 55 | 1021.0 |
| 20260902095617 | 60 | 254 | 3.0 | 7.0 | 0.00 | 0.00 | 0.00 | 55 | 1021.0 |
| 20260902095410 | 60 | 259 | 3.0 | 6.0 | 0.00 | 0.00 | 0.00 | 56 | 1021.1 |
| 20260902095320 | 60 | 257 | 2.0 | 5.0 | 0.00 | 0.00 | 0.00 | 56 | 1021.1 |
| 20260902095314 | 60 | 248 | 2.0 | 5.0 | 0.00 | 0.00 | 0.00 | 55 | 1021.0 |
| 20260902095111 | 60 | 235 | 2.0 | 5.0 | 0.00 | 0.00 | 0.00 | 56 | 1021.0 |
| 20260902095007 | 60 | 225 | 2.0 | 4.0 | 0.00 | 0.00 | 0.00 | 56 | 1021.0 |
| 20260902094913 | 60 | 225 | 2.0 | 3.0 | 0.00 | 0.00 | 0.00 | 55 | 1021.1 |
| 20260902094700 | 60 | 203 | 2.0 | 3.0 | 0.00 | 0.00 | 0.00 | 55 | 1021.1 |
| 20260902094609 | 60 | 203 | 1.0 | 3.0 | 0.00 | 0.00 | 0.00 | 55 | 1021.1 |
| 20260902094402 | 60 | 203 | 1.0 | 3.0 | 0.00 | 0.00 | 0.00 | 55 | 1021.1 |
| 20260902094300 | 60 | 203 | 2.0 | 3.0 | 0.00 | 0.00 | 0.00 | 55 | 1021.1 |
| 20260902094157 | 60 | 203 | 2.0 | 4.0 | 0.00 | 0.00 | 0.00 | 55 | 1021.1 |
| 20260902094059 | 60 | 203 | 2.0 | 4.0 | 0.00 | 0.00 | 0.00 | 55 | 1021.1 |
| 20260902093852 | 60 | 203 | 2.0 | 4.0 | 0.00 | 0.00 | 0.00 | 55 | 1021.1 |
| 20260902093802 | 60 | 203 | 2.0 | 4.0 | 0.00 | 0.00 | 0.00 | 55 | 1021.1 |
| 20260902093651 | 60 | 203 | 2.0 | 4.0 | 0.00 | 0.00 | 0.00 | 55 | 1021.1 |
| 20260902093549 | 60 | 203 | 2.0 | 4.0 | 0.00 | 0.00 | 0.00 | 55 | 1021.1 |
| 20260902093450 | 60 | 165 | 2.0 | 4.0 | 0.00 | 0.00 | 0.00 | 55 | 1021.1 |
| 20260902093354 | 60 | 165 | 2.0 | 4.0 | 0.00 | 0.00 | 0.00 | 55 | 1021.1 |
| 20260902093145 | 60 | 165 | 2.0 | 4.0 | 0.00 | 0.00 | 0.00 | 55 | 1021.1 |
| 20260902093046 | 60 | 165 | 2.0 | 4.0 | 0.00 | 0.00 | 0.00 | 55 | 1021.1 |
| 20260902092949 | 60 | 232 | 2.0 | 4.0 | 0.00 | 0.00 | 0.00 | 55 | 1021.1 |
| 20260902092742 | 60 | 232 | 2.0 | 4.0 | 0.00 | 0.00 | 0.00 | 55 | 1021.1 |
| 20260902092645 | 60 | 232 | 2.0 | 4.0 | 0.00 | 0.00 | 0.00 | 55 | 1021.0 |
| 20260902092438 | 60 | 232 | 2.0 | 4.0 | 0.00 | 0.00 | 0.00 | 55 | 1021.1 |
| 20260902092338 | 60 | 232 | 2.0 | 4.0 | 0.00 | 0.00 | 0.00 | 55 | 1021.1 |
| 20260902092237 | 60 | 232 | 2.0 | 4.0 | 0.00 | 0.00 | 0.00 | 56 | 1021.1 |
| 20260902092130 | 60 | 232 | 2.0 | 3.0 | 0.00 | 0.00 | 0.00 | 56 | 1021.1 |
| 20260902092038 | 60 | 232 | 2.0 | 3.0 | 0.00 | 0.00 | 0.00 | 56 | 1021.1 |
| 20260902091936 | 60 | 232 | 2.0 | 3.0 | 0.00 | 0.00 | 0.00 | 56 | 1021.1 |
| 20260902091833 | 60 | 233 | 2.0 | 3.0 | 0.00 | 0.00 | 0.00 | 56 | 1021.1 |
| 20260902091735 | 60 | 215 | 2.0 | 3.0 | 0.00 | 0.00 | 0.00 | 56 | 1021.1 |
| 20260902091624 | 60 | 237 | 2.0 | 3.0 | 0.00 | 0.00 | 0.00 | 56 | 1021.1 |
| 20260902091531 | 60 | 237 | 2.0 | 3.0 | 0.00 | 0.00 | 0.00 | 56 | 1021.1 |
| 20260902091430 | 60 | 198 | 2.0 | 3.0 | 0.00 | 0.00 | 0.00 | 56 | 1021.1 |
| 20260902091337 | 60 | 198 | 2.0 | 3.0 | 0.00 | 0.00 | 0.00 | 56 | 1021.1 |
| 20260902091118 | 60 | 198 | 2.0 | 4.0 | 0.00 | 0.00 | 0.00 | 56 | 1021.1 |
| 20260902091030 | 60 | 198 | 2.0 | 4.0 | 0.00 | 0.00 | 0.00 | 56 | 1021.1 |
| 20260902090929 | 60 | 198 | 2.0 | 4.0 | 0.00 | 0.00 | 0.00 | 56 | 1021.1 |
| 20260902090830 | 60 | 198 | 2.0 | 4.0 | 0.00 | 0.00 | 0.00 | 56 | 1021.1 |
| 20260902090729 | 60 | 198 | 2.0 | 4.0 | 0.00 | 0.00 | 0.00 | 56 | 1021.1 |
| 20260902090634 | 60 | 198 | 2.0 | 4.0 | 0.00 | 0.00 | 0.00 | 56 | 1021.1 |
| 20260902090429 | 60 | 198 | 2.0 | 4.0 | 0.00 | 0.00 | 0.00 | 56 | 1021.1 |
| 20260902090330 | 60 | 198 | 1.0 | 4.0 | 0.00 | 0.00 | 0.00 | 56 | 1021.1 |
| 20260902090228 | 60 | 198 | 1.0 | 4.0 | 0.00 | 0.00 | 0.00 | 56 | 1021.1 |
| 20260902090027 | 60 | 198 | 1.0 | 4.0 | 0.00 | 0.00 | 0.00 | 55 | 1021.1 |
| 20260902085923 | 60 | 198 | 1.0 | 4.0 | 0.00 | 0.00 | 0.00 | 55 | 1021.1 |
| 20260902085817 | 60 | 198 | 1.0 | 4.0 | 0.00 | 0.00 | 0.00 | 55 | 1021.1 |
| 20260902085718 | 60 | 198 | 1.0 | 2.0 | 0.00 | 0.00 | 0.00 | 55 | 1021.1 |
| 20260902085629 | 60 | 198 | 1.0 | 2.0 | 0.00 | 0.00 | 0.00 | 54 | 1021.1 |
| 20260902085622 | 60 | 198 | 1.0 | 3.0 | 0.00 | 0.00 | 0.00 | 54 | 1021.1 |
| 20260902085417 | 61 | 198 | 1.0 | 4.0 | 0.00 | 0.00 | 0.00 | 54 | 1021.1 |
| 20260902085314 | 61 | 198 | 2.0 | 4.0 | 0.00 | 0.00 | 0.00 | 54 | 1021.1 |
| 20260902085211 | 61 | 198 | 2.0 | 4.0 | 0.00 | 0.00 | 0.00 | 54 | 1021.1 |
| 20260902085112 | 61 | 198 | 2.0 | 4.0 | 0.00 | 0.00 | 0.00 | 54 | 1021.1 |
| 20260902085050 | 61 | 198 | 2.0 | 4.0 | 0.00 | 0.00 | 0.00 | 54 | 1021.1 |
| 20260902085012 | 61 | 198 | 2.0 | 4.0 | 0.00 | 0.00 | 0.00 | 54 | 1021.1 |
| 20260902084911 | 61 | 198 | 2.0 | 4.0 | 0.00 | 0.00 | 0.00 | 54 | 1021.1 |
| 20260902084806 | 61 | 198 | 2.0 | 4.0 | 0.00 | 0.00 | 0.00 | 54 | 1021.0 |
| 20260902084706 | 61 | 198 | 2.0 | 4.0 | 0.00 | 0.00 | 0.00 | 54 | 1021.1 |
| 20260902084651 | 61 | 198 | 2.0 | 4.0 | 0.00 | 0.00 | 0.00 | 53 | 1021.1 |
| 20260902084513 | 61 | 198 | 2.0 | 4.0 | 0.00 | 0.00 | 0.00 | 53 | 1021.1 |
| 20260902084304 | 61 | 198 | 2.0 | 4.0 | 0.00 | 0.00 | 0.00 | 53 | 1021.1 |
| 20260902084210 | 62 | 198 | 2.0 | 4.0 | 0.00 | 0.00 | 0.00 | 53 | 1021.1 |
| 20260902084038 | 62 | 198 | 2.0 | 4.0 | 0.00 | 0.00 | 0.00 | 52 | 1021.1 |
| 20260902084002 | 62 | 198 | 2.0 | 4.0 | 0.00 | 0.00 | 0.00 | 52 | 1021.1 |
| 20260902083859 | 62 | 232 | 2.0 | 4.0 | 0.00 | 0.00 | 0.00 | 52 | 1021.1 |
| 20260902083756 | 62 | 232 | 2.0 | 4.0 | 0.00 | 0.00 | 0.00 | 53 | 1021.1 |
| 20260902083653 | 62 | 232 | 2.0 | 4.0 | 0.00 | 0.00 | 0.00 | 52 | 1021.1 |
| 20260902083605 | 62 | 232 | 2.0 | 4.0 | 0.00 | 0.00 | 0.00 | 52 | 1021.1 |
| 20260902083558 | 62 | 232 | 2.0 | 3.0 | 0.00 | 0.00 | 0.00 | 52 | 1021.1 |
| 20260902083354 | 62 | 232 | 2.0 | 4.0 | 0.00 | 0.00 | 0.00 | 52 | 1021.1 |
| 20260902083249 | 62 | 232 | 2.0 | 5.0 | 0.00 | 0.00 | 0.00 | 52 | 1021.1 |
| 20260902083155 | 62 | 232 | 2.0 | 5.0 | 0.00 | 0.00 | 0.00 | 52 | 1021.1 |
| 20260902083027 | 62 | 232 | 2.0 | 5.0 | 0.00 | 0.00 | 0.00 | 52 | 1021.1 |
| 20260902082954 | 62 | 232 | 2.0 | 5.0 | 0.00 | 0.00 | 0.00 | 52 | 1021.1 |
| 20260902082743 | 62 | 232 | 2.0 | 5.0 | 0.00 | 0.00 | 0.00 | 52 | 1021.1 |
| 20260902082734 | 62 | 223 | 2.0 | 5.0 | 0.00 | 0.00 | 0.00 | 52 | 1021.1 |
| 20260902082442 | 62 | 229 | 2.0 | 5.0 | 0.00 | 0.00 | 0.00 | 52 | 1021.1 |
| 20260902082341 | 62 | 229 | 2.0 | 5.0 | 0.00 | 0.00 | 0.00 | 52 | 1021.1 |
| 20260902082237 | 62 | 243 | 2.0 | 4.0 | 0.00 | 0.00 | 0.00 | 52 | 1021.1 |
| 20260902082142 | 62 | 247 | 2.0 | 4.0 | 0.00 | 0.00 | 0.00 | 52 | 1021.1 |
| 20260902082015 | 62 | 215 | 2.0 | 4.0 | 0.00 | 0.00 | 0.00 | 52 | 1021.1 |
| 20260902081936 | 62 | 227 | 2.0 | 3.0 | 0.00 | 0.00 | 0.00 | 52 | 1021.1 |
| 20260902081845 | 62 | 223 | 2.0 | 3.0 | 0.00 | 0.00 | 0.00 | 52 | 1021.0 |
| 20260902081508 | 62 | 224 | 2.0 | 3.0 | 0.00 | 0.00 | 0.00 | 52 | 1021.0 |
| 20260902081432 | 62 | 215 | 2.0 | 3.0 | 0.00 | 0.00 | 0.00 | 51 | 1021.0 |
| 20260902081329 | 62 | 207 | 2.0 | 5.0 | 0.00 | 0.00 | 0.00 | 51 | 1021.1 |
| 20260902081230 | 62 | 207 | 2.0 | 5.0 | 0.00 | 0.00 | 0.00 | 51 | 1021.1 |
| 20260902081111 | 62 | 198 | 2.0 | 5.0 | 0.00 | 0.00 | 0.00 | 52 | 1021.1 |
| 20260902080924 | 62 | 198 | 2.0 | 5.0 | 0.00 | 0.00 | 0.00 | 52 | 1021.1 |
| 20260902080823 | 63 | 198 | 2.0 | 5.0 | 0.00 | 0.00 | 0.00 | 52 | 1021.1 |
| 20260902080719 | 63 | 198 | 3.0 | 5.0 | 0.00 | 0.00 | 0.00 | 51 | 1021.1 |
| 20260902080618 | 63 | 198 | 3.0 | 5.0 | 0.00 | 0.00 | 0.00 | 51 | 1021.1 |
| 20260902080530 | 63 | 198 | 3.0 | 5.0 | 0.00 | 0.00 | 0.00 | 51 | 1021.1 |
| 20260902080523 | 63 | 198 | 3.0 | 5.0 | 0.00 | 0.00 | 0.00 | 51 | 1021.1 |
| 20260902080325 | 63 | 181 | 3.0 | 5.0 | 0.00 | 0.00 | 0.00 | 51 | 1021.1 |
| 20260902080012 | 63 | 181 | 3.0 | 5.0 | 0.00 | 0.00 | 0.00 | 51 | 1021.1 |
| 20260902075950 | 64 | 181 | 3.0 | 5.0 | 0.00 | 0.00 | 0.00 | 51 | 1021.1 |
| 20260902075912 | 64 | 159 | 3.0 | 6.0 | 0.00 | 0.00 | 0.00 | 50 | 1021.1 |
| 20260902075812 | 64 | 159 | 3.0 | 6.0 | 0.00 | 0.00 | 0.00 | 50 | 1021.1 |
| 20260902075710 | 64 | 159 | 3.0 | 6.0 | 0.00 | 0.00 | 0.00 | 50 | 1021.1 |
| 20260902075610 | 64 | 159 | 3.0 | 6.0 | 0.00 | 0.00 | 0.00 | 50 | 1021.1 |
| 20260902075507 | 64 | 140 | 3.0 | 6.0 | 0.00 | 0.00 | 0.00 | 50 | 1021.1 |
| 20260902075445 | 64 | 140 | 3.0 | 6.0 | 0.00 | 0.00 | 0.00 | 50 | 1021.1 |
| 20260902075408 | 64 | 140 | 3.0 | 6.0 | 0.00 | 0.00 | 0.00 | 50 | 1021.1 |
| 20260902075306 | 64 | 140 | 3.0 | 6.0 | 0.00 | 0.00 | 0.00 | 50 | 1021.1 |
| 20260902075159 | 64 | 135 | 3.0 | 6.0 | 0.00 | 0.00 | 0.00 | 50 | 1021.1 |
| 20260902075100 | 64 | 135 | 3.0 | 6.0 | 0.00 | 0.00 | 0.00 | 50 | 1021.1 |
| 20260902075000 | 64 | 150 | 3.0 | 6.0 | 0.00 | 0.00 | 0.00 | 50 | 1021.1 |
| 20260902074938 | 64 | 157 | 2.0 | 6.0 | 0.00 | 0.00 | 0.00 | 50 | 1021.1 |
| 20260902074906 | 64 | 163 | 2.0 | 6.0 | 0.00 | 0.00 | 0.00 | 50 | 1021.1 |
| 20260902074655 | 64 | 133 | 2.0 | 6.0 | 0.00 | 0.00 | 0.00 | 50 | 1021.1 |
| 20260902074556 | 64 | 127 | 2.0 | 5.0 | 0.00 | 0.00 | 0.00 | 50 | 1021.1 |
| 20260902074433 | 64 | 153 | 2.0 | 5.0 | 0.00 | 0.00 | 0.00 | 50 | 1021.1 |
| 20260902074401 | 64 | 153 | 2.0 | 5.0 | 0.00 | 0.00 | 0.00 | 49 | 1021.1 |
| 20260902074152 | 64 | 153 | 3.0 | 6.0 | 0.00 | 0.00 | 0.00 | 49 | 1021.1 |
| 20260902074052 | 64 | 153 | 3.0 | 6.0 | 0.00 | 0.00 | 0.00 | 50 | 1021.1 |
| 20260902074006 | 64 | 169 | 3.0 | 6.0 | 0.00 | 0.00 | 0.00 | 50 | 1021.1 |
| 20260902073959 | 64 | 143 | 3.0 | 6.0 | 0.00 | 0.00 | 0.00 | 50 | 1021.1 |
| 20260902073642 | 64 | 143 | 3.0 | 6.0 | 0.00 | 0.00 | 0.00 | 50 | 1021.0 |
| 20260902073542 | 64 | 168 | 3.0 | 6.0 | 0.00 | 0.00 | 0.00 | 50 | 1021.1 |
| 20260902073420 | 64 | 192 | 3.0 | 6.0 | 0.00 | 0.00 | 0.00 | 50 | 1021.0 |
| 20260902073348 | 64 | 177 | 3.0 | 6.0 | 0.00 | 0.00 | 0.00 | 50 | 1021.0 |
| 20260902073145 | 65 | 134 | 2.0 | 5.0 | 0.00 | 0.00 | 0.00 | 49 | 1021.1 |
| 20260902072937 | 65 | 112 | 2.0 | 5.0 | 0.00 | 0.00 | 0.00 | 48 | 1021.0 |
| 20260902072914 | 65 | 144 | 2.0 | 5.0 | 0.00 | 0.00 | 0.00 | 48 | 1021.0 |
| 20260902072838 | 65 | 151 | 2.0 | 5.0 | 0.00 | 0.00 | 0.00 | 48 | 1021.0 |
| 20260902072735 | 65 | 164 | 1.0 | 5.0 | 0.00 | 0.00 | 0.00 | 47 | 1021.0 |
| 20260902072631 | 65 | 176 | 1.0 | 4.0 | 0.00 | 0.00 | 0.00 | 47 | 1021.0 |
| 20260902072529 | 65 | 176 | 1.0 | 4.0 | 0.00 | 0.00 | 0.00 | 46 | 1020.9 |
| 20260902072434 | 65 | 176 | 1.0 | 4.0 | 0.00 | 0.00 | 0.00 | 46 | 1021.0 |
| 20260902072229 | 66 | 176 | 1.0 | 3.0 | 0.00 | 0.00 | 0.00 | 46 | 1021.0 |
| 20260902072126 | 66 | 176 | 1.0 | 3.0 | 0.00 | 0.00 | 0.00 | 46 | 1020.9 |
| 20260902072023 | 66 | 176 | 1.0 | 3.0 | 0.00 | 0.00 | 0.00 | 46 | 1020.9 |
| 20260902071928 | 66 | 176 | 1.0 | 3.0 | 0.00 | 0.00 | 0.00 | 46 | 1021.0 |
| 20260902071725 | 66 | 176 | 1.0 | 3.0 | 0.00 | 0.00 | 0.00 | 46 | 1020.9 |
| 20260902071517 | 67 | 176 | 1.0 | 3.0 | 0.00 | 0.00 | 0.00 | 45 | 1020.9 |
| 20260902071412 | 67 | 176 | 1.0 | 3.0 | 0.00 | 0.00 | 0.00 | 45 | 1020.9 |
| 20260902071326 | 67 | 176 | 1.0 | 3.0 | 0.00 | 0.00 | 0.00 | 45 | 1020.9 |
| 20260902071011 | 68 | 176 | 1.0 | 3.0 | 0.00 | 0.00 | 0.00 | 44 | 1020.7 |
| 20260902070911 | 68 | 176 | 1.0 | 3.0 | 0.00 | 0.00 | 0.00 | 44 | 1020.7 |
| 20260902070812 | 68 | 176 | 2.0 | 3.0 | 0.00 | 0.00 | 0.00 | 44 | 1020.7 |
| 20260902070719 | 68 | 176 | 2.0 | 4.0 | 0.00 | 0.00 | 0.00 | 44 | 1020.7 |
| 20260902070405 | 69 | 176 | 2.0 | 6.0 | 0.00 | 0.00 | 0.00 | 44 | 1020.9 |
| 20260902070305 | 69 | 176 | 2.0 | 6.0 | 0.00 | 0.00 | 0.00 | 44 | 1020.7 |
| 20260902070205 | 69 | 176 | 3.0 | 6.0 | 0.00 | 0.00 | 0.00 | 44 | 1020.7 |
| 20260902070100 | 69 | 331 | 3.0 | 9.0 | 0.00 | 0.00 | 0.00 | 43 | 1020.7 |
| 20260902070010 | 69 | 331 | 3.0 | 9.0 | 0.00 | 0.00 | 0.00 | 43 | 1020.7 |
| 20260902065700 | 69 | 286 | 4.0 | 9.0 | 0.00 | 0.01 | 0.00 | 42 | 1020.9 |
| 20260902065621 | 69 | 319 | 4.0 | 9.0 | 0.00 | 0.01 | 0.00 | 42 | 1020.9 |
| 20260902065613 | 69 | 320 | 4.0 | 9.0 | 0.00 | 0.01 | 0.00 | 42 | 1020.9 |
| 20260902065153 | 69 | 328 | 5.0 | 9.0 | 0.00 | 0.01 | 0.00 | 41 | 1020.7 |
| 20260902065050 | 69 | 315 | 5.0 | 11.0 | 0.00 | 0.01 | 0.00 | 41 | 1020.9 |
| 20260902065013 | 69 | 294 | 5.0 | 11.0 | 0.00 | 0.01 | 0.00 | 41 | 1020.7 |
| 20260902064847 | 69 | 333 | 5.0 | 11.0 | 0.00 | 0.01 | 0.00 | 41 | 1020.7 |
| 20260902064747 | 69 | 319 | 5.0 | 11.0 | 0.00 | 0.01 | 0.00 | 41 | 1020.7 |
| 20260902064706 | 69 | 279 | 5.0 | 11.0 | 0.00 | 0.01 | 0.00 | 41 | 1020.7 |
| 20260902064445 | 69 | 319 | 5.0 | 11.0 | 0.00 | 0.01 | 0.00 | 41 | 1020.7 |
| 20260902064242 | 69 | 286 | 5.0 | 11.0 | 0.00 | 0.01 | 0.00 | 41 | 1020.7 |
| 20260902064141 | 69 | 279 | 4.0 | 11.0 | 0.00 | 0.01 | 0.00 | 41 | 1020.6 |
| 20260902064035 | 70 | 317 | 4.0 | 10.0 | 0.00 | 0.01 | 0.00 | 41 | 1020.7 |
| 20260902063936 | 70 | 310 | 4.0 | 10.0 | 0.00 | 0.01 | 0.00 | 41 | 1020.7 |
| 20260902063905 | 70 | 280 | 4.0 | 10.0 | 0.00 | 0.01 | 0.00 | 40 | 1020.7 |
| 20260902063836 | 70 | 280 | 4.0 | 10.0 | 0.00 | 0.01 | 0.00 | 41 | 1020.6 |
| 20260902063736 | 70 | 322 | 5.0 | 10.0 | 0.00 | 0.01 | 0.00 | 41 | 1020.7 |
| 20260902063636 | 70 | 310 | 5.0 | 11.0 | 0.00 | 0.01 | 0.00 | 40 | 1020.6 |
| 20260902063531 | 70 | 288 | 5.0 | 11.0 | 0.00 | 0.01 | 0.00 | 40 | 1020.6 |
| 20260902063430 | 70 | 277 | 6.0 | 11.0 | 0.00 | 0.01 | 0.00 | 40 | 1020.6 |
| 20260902063403 | 70 | 266 | 6.0 | 11.0 | 0.00 | 0.01 | 0.00 | 41 | 1020.6 |
| 20260902063336 | 70 | 344 | 6.0 | 11.0 | 0.00 | 0.01 | 0.00 | 40 | 1020.6 |
| 20260902063129 | 70 | 262 | 6.0 | 11.0 | 0.00 | 0.01 | 0.00 | 40 | 1020.6 |
| 20260902063024 | 70 | 279 | 6.0 | 11.0 | 0.00 | 0.01 | 0.00 | 41 | 1020.6 |
| 20260902062923 | 70 | 271 | 6.0 | 11.0 | 0.00 | 0.01 | 0.00 | 41 | 1020.6 |
| 20260902062901 | 70 | 319 | 6.0 | 11.0 | 0.00 | 0.01 | 0.00 | 40 | 1020.6 |
| 20260902062824 | 70 | 304 | 6.0 | 11.0 | 0.00 | 0.01 | 0.00 | 40 | 1020.6 |
| 20260902062724 | 70 | 285 | 6.0 | 11.0 | 0.00 | 0.01 | 0.00 | 41 | 1020.7 |
| 20260902062623 | 70 | 305 | 5.0 | 10.0 | 0.00 | 0.01 | 0.00 | 41 | 1020.7 |
| 20260902062517 | 70 | 304 | 5.0 | 10.0 | 0.00 | 0.01 | 0.00 | 41 | 1020.6 |
| 20260902062509 | 70 | 275 | 5.0 | 9.0 | 0.00 | 0.01 | 0.00 | 41 | 1020.7 |
| 20260902062324 | 70 | 295 | 5.0 | 10.0 | 0.00 | 0.01 | 0.00 | 41 | 1020.7 |
| 20260902062117 | 70 | 284 | 5.0 | 10.0 | 0.00 | 0.01 | 0.00 | 41 | 1020.7 |
| 20260902062012 | 70 | 294 | 5.0 | 10.0 | 0.00 | 0.01 | 0.00 | 41 | 1020.7 |
| 20260902061912 | 70 | 265 | 6.0 | 10.0 | 0.00 | 0.01 | 0.00 | 41 | 1020.7 |
| 20260902061901 | 70 | 304 | 6.0 | 10.0 | 0.00 | 0.01 | 0.00 | 41 | 1020.7 |
| 20260902061812 | 70 | 331 | 5.0 | 10.0 | 0.00 | 0.01 | 0.00 | 41 | 1020.7 |
| 20260902061711 | 70 | 261 | 5.0 | 10.0 | 0.00 | 0.01 | 0.00 | 40 | 1020.7 |
| 20260902061611 | 70 | 254 | 6.0 | 10.0 | 0.00 | 0.01 | 0.00 | 40 | 1020.7 |
| 20260902061508 | 70 | 258 | 6.0 | 10.0 | 0.00 | 0.01 | 0.00 | 41 | 1020.7 |
| 20260902061400 | 70 | 273 | 6.0 | 10.0 | 0.00 | 0.02 | 0.00 | 41 | 1020.7 |
| 20260902061305 | 70 | 275 | 6.0 | 9.0 | 0.00 | 0.02 | 0.00 | 41 | 1020.7 |
| 20260902061206 | 70 | 254 | 6.0 | 9.0 | 0.00 | 0.02 | 0.00 | 41 | 1020.9 |
| 20260902061105 | 70 | 286 | 6.0 | 9.0 | 0.00 | 0.02 | 0.00 | 41 | 1020.9 |
| 20260902061021 | 70 | 329 | 6.0 | 11.0 | 0.00 | 0.02 | 0.00 | 41 | 1020.9 |
| 20260902060910 | 70 | 266 | 6.0 | 11.0 | 0.00 | 0.02 | 0.00 | 41 | 1020.9 |
| 20260902060708 | 70 | 282 | 6.0 | 11.0 | 0.00 | 0.02 | 0.00 | 41 | 1020.9 |
| 20260902060502 | 70 | 264 | 6.0 | 11.0 | 0.00 | 0.02 | 0.00 | 42 | 1020.7 |
| 20260902060401 | 70 | 284 | 6.0 | 11.0 | 0.00 | 0.02 | 0.00 | 42 | 1020.7 |
| 20260902060301 | 70 | 275 | 6.0 | 11.0 | 0.00 | 0.02 | 0.00 | 42 | 1020.9 |
| 20260902060201 | 70 | 295 | 7.0 | 11.0 | 0.00 | 0.02 | 0.00 | 42 | 1020.7 |
| 20260902060101 | 70 | 264 | 6.0 | 11.0 | 0.00 | 0.02 | 0.00 | 42 | 1020.7 |
| 20260902060001 | 70 | 282 | 6.0 | 11.0 | 0.00 | 0.02 | 0.02 | 42 | 1020.9 |
| 20260902055902 | 70 | 305 | 6.0 | 11.0 | 0.00 | 0.02 | 0.02 | 42 | 1020.9 |
| 20260902055656 | 69 | 270 | 6.0 | 11.0 | 0.00 | 0.02 | 0.02 | 42 | 1020.9 |
| 20260902055555 | 70 | 320 | 6.0 | 11.0 | 0.00 | 0.02 | 0.02 | 43 | 1020.9 |
| 20260902055456 | 70 | 280 | 6.0 | 11.0 | 0.00 | 0.02 | 0.02 | 43 | 1020.9 |
| 20260902055359 | 69 | 287 | 6.0 | 11.0 | 0.00 | 0.02 | 0.02 | 43 | 1020.9 |
| 20260902055149 | 70 | 281 | 6.0 | 10.0 | 0.00 | 0.02 | 0.02 | 43 | 1020.9 |
| 20260902055057 | 70 | 277 | 7.0 | 12.0 | 0.00 | 0.02 | 0.02 | 43 | 1020.9 |
| 20260902054848 | 70 | 321 | 7.0 | 12.0 | 0.00 | 0.02 | 0.02 | 43 | 1020.9 |
| 20260902054746 | 69 | 292 | 7.0 | 12.0 | 0.00 | 0.02 | 0.02 | 43 | 1020.9 |
| 20260902054646 | 69 | 292 | 7.0 | 12.0 | 0.00 | 0.02 | 0.02 | 43 | 1020.9 |
| 20260902054553 | 70 | 277 | 7.0 | 12.0 | 0.00 | 0.02 | 0.02 | 43 | 1020.9 |
| 20260902054343 | 69 | 276 | 7.0 | 12.0 | 0.00 | 0.02 | 0.02 | 43 | 1020.9 |
| 20260902054239 | 70 | 290 | 7.0 | 12.0 | 0.00 | 0.02 | 0.02 | 43 | 1020.9 |
| 20260902054141 | 70 | 299 | 7.0 | 12.0 | 0.00 | 0.02 | 0.02 | 43 | 1021.0 |
| 20260902054039 | 70 | 302 | 7.0 | 12.0 | 0.00 | 0.02 | 0.02 | 43 | 1020.9 |
| 20260902053940 | 70 | 292 | 7.0 | 12.0 | 0.00 | 0.02 | 0.02 | 43 | 1020.9 |
| 20260902053837 | 70 | 278 | 7.0 | 12.0 | 0.00 | 0.02 | 0.02 | 42 | 1020.9 |
| 20260902053732 | 70 | 333 | 7.0 | 12.0 | 0.00 | 0.02 | 0.02 | 43 | 1020.9 |
| 20260902053631 | 70 | 281 | 7.0 | 12.0 | 0.00 | 0.02 | 0.02 | 42 | 1020.9 |
| 20260902053532 | 69 | 304 | 6.0 | 12.0 | 0.00 | 0.02 | 0.02 | 43 | 1021.0 |
| 20260902053442 | 69 | 303 | 6.0 | 12.0 | 0.00 | 0.02 | 0.02 | 43 | 1020.9 |
| 20260902053435 | 70 | 321 | 7.0 | 11.0 | 0.00 | 0.02 | 0.02 | 43 | 1021.0 |
| 20260902053226 | 69 | 304 | 6.0 | 11.0 | 0.00 | 0.02 | 0.02 | 43 | 1021.0 |
| 20260902053126 | 70 | 288 | 7.0 | 11.0 | 0.00 | 0.02 | 0.02 | 43 | 1021.0 |
| 20260902053026 | 70 | 281 | 6.0 | 11.0 | 0.00 | 0.02 | 0.02 | 43 | 1021.0 |
| 20260902052937 | 70 | 299 | 6.0 | 10.0 | 0.00 | 0.02 | 0.02 | 43 | 1020.9 |
| 20260902052930 | 70 | 309 | 6.0 | 10.0 | 0.00 | 0.02 | 0.02 | 43 | 1021.0 |
| 20260902052719 | 70 | 290 | 7.0 | 10.0 | 0.00 | 0.02 | 0.02 | 43 | 1021.0 |
| 20260902052620 | 69 | 302 | 6.0 | 10.0 | 0.00 | 0.02 | 0.02 | 43 | 1021.0 |
| 20260902052519 | 69 | 300 | 7.0 | 10.0 | 0.00 | 0.02 | 0.02 | 43 | 1021.0 |
| 20260902052430 | 69 | 296 | 7.0 | 10.0 | 0.00 | 0.02 | 0.02 | 43 | 1021.0 |
| 20260902052423 | 69 | 307 | 6.0 | 10.0 | 0.00 | 0.02 | 0.02 | 44 | 1021.0 |
| 20260902052223 | 69 | 320 | 7.0 | 10.0 | 0.00 | 0.02 | 0.02 | 44 | 1021.1 |
| 20260902052015 | 69 | 317 | 7.0 | 11.0 | 0.00 | 0.02 | 0.02 | 44 | 1021.1 |
| 20260902051915 | 69 | 319 | 7.0 | 11.0 | 0.00 | 0.02 | 0.02 | 44 | 1021.1 |
| 20260902051813 | 69 | 296 | 7.0 | 11.0 | 0.00 | 0.02 | 0.02 | 45 | 1021.1 |
| 20260902051709 | 69 | 290 | 7.0 | 11.0 | 0.00 | 0.02 | 0.02 | 45 | 1021.1 |
| 20260902051608 | 69 | 281 | 7.0 | 11.0 | 0.00 | 0.02 | 0.02 | 45 | 1021.1 |
| 20260902051508 | 69 | 322 | 7.0 | 11.0 | 0.00 | 0.02 | 0.02 | 45 | 1021.1 |
| 20260902051408 | 69 | 329 | 7.0 | 11.0 | 0.00 | 0.02 | 0.02 | 46 | 1021.1 |
| 20260902051307 | 69 | 281 | 7.0 | 11.0 | 0.00 | 0.02 | 0.02 | 45 | 1021.1 |
| 20260902051204 | 69 | 300 | 7.0 | 11.0 | 0.00 | 0.02 | 0.02 | 45 | 1021.1 |
| 20260902051104 | 69 | 300 | 7.0 | 11.0 | 0.00 | 0.02 | 0.02 | 46 | 1021.1 |
| 20260902051003 | 69 | 320 | 8.0 | 11.0 | 0.00 | 0.02 | 0.02 | 45 | 1021.1 |
| 20260902050904 | 69 | 319 | 8.0 | 11.0 | 0.00 | 0.02 | 0.02 | 45 | 1021.1 |
| 20260902050805 | 69 | 309 | 8.0 | 11.0 | 0.00 | 0.02 | 0.02 | 45 | 1021.1 |
| 20260902050556 | 69 | 316 | 8.0 | 11.0 | 0.00 | 0.02 | 0.02 | 45 | 1021.1 |
| 20260902050456 | 69 | 311 | 7.0 | 11.0 | 0.00 | 0.02 | 0.02 | 45 | 1021.1 |
| 20260902050356 | 69 | 317 | 7.0 | 11.0 | 0.00 | 0.02 | 0.02 | 45 | 1021.1 |
| 20260902050257 | 69 | 326 | 7.0 | 11.0 | 0.00 | 0.02 | 0.02 | 45 | 1021.1 |
| 20260902050150 | 69 | 302 | 7.0 | 11.0 | 0.00 | 0.02 | 0.02 | 45 | 1021.1 |
| 20260902050050 | 69 | 327 | 7.0 | 11.0 | 0.00 | 0.02 | 0.02 | 46 | 1021.1 |
| 20260902045957 | 69 | 315 | 6.0 | 11.0 | 0.00 | 0.02 | 0.02 | 46 | 1021.1 |
| 20260902045749 | 69 | 311 | 5.0 | 10.0 | 0.00 | 0.02 | 0.02 | 46 | 1021.2 |
| 20260902045651 | 69 | 304 | 5.0 | 9.0 | 0.00 | 0.02 | 0.02 | 47 | 1021.2 |
| 20260902045444 | 69 | 340 | 4.0 | 9.0 | 0.00 | 0.02 | 0.02 | 47 | 1021.2 |
| 20260902045355 | 69 | 309 | 4.0 | 9.0 | 0.00 | 0.02 | 0.02 | 47 | 1021.2 |
| 20260902045348 | 69 | 321 | 3.0 | 9.0 | 0.00 | 0.02 | 0.02 | 47 | 1021.3 |
| 20260902045140 | 69 | 322 | 2.0 | 9.0 | 0.00 | 0.02 | 0.02 | 48 | 1021.3 |
| 20260902045040 | 69 | 313 | 2.0 | 7.0 | 0.00 | 0.02 | 0.02 | 49 | 1021.2 |
| 20260902044939 | 69 | 300 | 2.0 | 7.0 | 0.00 | 0.02 | 0.02 | 49 | 1021.2 |
| 20260902044847 | 69 | 335 | 2.0 | 7.0 | 0.00 | 0.02 | 0.02 | 49 | 1021.3 |
| 20260902044737 | 69 | 339 | 2.0 | 6.0 | 0.00 | 0.02 | 0.02 | 49 | 1021.3 |
| 20260902044652 | 69 | 316 | 3.0 | 6.0 | 0.00 | 0.02 | 0.02 | 49 | 1021.3 |
| 20260902044237 | 70 | 13 | 5.0 | 11.0 | 0.00 | 0.02 | 0.02 | 49 | 1021.3 |
| 20260902044029 | 70 | 71 | 6.0 | 12.0 | 0.00 | 0.02 | 0.02 | 48 | 1021.3 |
| 20260902043928 | 70 | 49 | 6.0 | 12.0 | 0.00 | 0.02 | 0.02 | 48 | 1021.5 |
| 20260902043828 | 70 | 52 | 6.0 | 12.0 | 0.00 | 0.02 | 0.02 | 48 | 1021.3 |
| 20260902043725 | 70 | 19 | 6.0 | 12.0 | 0.00 | 0.02 | 0.02 | 48 | 1021.3 |
| 20260902043622 | 70 | 338 | 6.0 | 12.0 | 0.00 | 0.02 | 0.02 | 48 | 1021.3 |
| 20260902043522 | 70 | 269 | 6.0 | 12.0 | 0.00 | 0.02 | 0.02 | 48 | 1021.3 |
| 20260902043422 | 70 | 309 | 6.0 | 12.0 | 0.00 | 0.02 | 0.02 | 48 | 1021.3 |
| 20260902043321 | 70 | 313 | 5.0 | 12.0 | 0.00 | 0.02 | 0.02 | 47 | 1021.3 |
| 20260902043219 | 70 | 307 | 5.0 | 12.0 | 0.00 | 0.02 | 0.02 | 47 | 1021.3 |
| 20260902043120 | 70 | 302 | 4.0 | 10.0 | 0.00 | 0.02 | 0.02 | 49 | 1021.3 |
| 20260902042914 | 71 | 324 | 4.0 | 8.0 | 0.00 | 0.02 | 0.02 | 50 | 1021.3 |
| 20260902042813 | 71 | 308 | 4.0 | 8.0 | 0.00 | 0.02 | 0.02 | 49 | 1021.3 |
| 20260902042714 | 71 | 309 | 4.0 | 8.0 | 0.00 | 0.02 | 0.02 | 49 | 1021.5 |
| 20260902042608 | 71 | 345 | 4.0 | 8.0 | 0.00 | 0.02 | 0.02 | 48 | 1021.5 |
| 20260902042507 | 71 | 321 | 4.0 | 8.0 | 0.00 | 0.02 | 0.02 | 47 | 1021.5 |
| 20260902042408 | 71 | 331 | 4.0 | 8.0 | 0.00 | 0.02 | 0.02 | 46 | 1021.3 |
| 20260902042309 | 71 | 338 | 4.0 | 8.0 | 0.00 | 0.02 | 0.02 | 46 | 1021.5 |
| 20260902042207 | 71 | 321 | 4.0 | 8.0 | 0.00 | 0.02 | 0.02 | 46 | 1021.5 |
| 20260902042104 | 71 | 301 | 4.0 | 8.0 | 0.00 | 0.02 | 0.02 | 46 | 1021.5 |
| 20260902042003 | 71 | 325 | 4.0 | 8.0 | 0.00 | 0.02 | 0.02 | 45 | 1021.5 |
| 20260902041927 | 71 | 285 | 4.0 | 8.0 | 0.00 | 0.02 | 0.02 | 45 | 1021.3 |
| 20260902041921 | 71 | 298 | 4.0 | 8.0 | 0.00 | 0.02 | 0.02 | 45 | 1021.5 |
| 20260902041356 | 71 | 318 | 4.0 | 8.0 | 0.00 | 0.02 | 0.02 | 46 | 1021.3 |
| 20260902041306 | 71 | 302 | 4.0 | 8.0 | 0.00 | 0.02 | 0.02 | 46 | 1021.5 |
| 20260902041155 | 71 | 294 | 4.0 | 8.0 | 0.00 | 0.02 | 0.02 | 46 | 1021.3 |
| 20260902041054 | 71 | 298 | 4.0 | 8.0 | 0.00 | 0.02 | 0.02 | 46 | 1021.5 |
| 20260902040953 | 71 | 317 | 4.0 | 7.0 | 0.00 | 0.02 | 0.02 | 47 | 1021.5 |
| 20260902040852 | 71 | 300 | 4.0 | 7.0 | 0.00 | 0.02 | 0.02 | 47 | 1021.3 |
| 20260902040800 | 71 | 288 | 4.0 | 7.0 | 0.00 | 0.02 | 0.02 | 47 | 1021.3 |
| 20260902040753 | 71 | 298 | 4.0 | 7.0 | 0.00 | 0.02 | 0.02 | 47 | 1021.3 |
| 20260902040543 | 71 | 303 | 4.0 | 7.0 | 0.00 | 0.02 | 0.02 | 47 | 1021.3 |
| 20260902040444 | 71 | 315 | 4.0 | 7.0 | 0.00 | 0.02 | 0.02 | 48 | 1021.5 |
| 20260902040343 | 72 | 323 | 4.0 | 7.0 | 0.00 | 0.02 | 0.02 | 47 | 1021.3 |
| 20260902040254 | 72 | 278 | 4.0 | 7.0 | 0.00 | 0.02 | 0.02 | 47 | 1021.5 |
| 20260902040143 | 72 | 287 | 4.0 | 7.0 | 0.00 | 0.02 | 0.02 | 46 | 1021.5 |
| 20260902040038 | 72 | 311 | 4.0 | 7.0 | 0.00 | 0.02 | 0.02 | 45 | 1021.5 |
| 20260902035937 | 72 | 298 | 4.0 | 7.0 | 0.00 | 0.02 | 0.02 | 44 | 1021.3 |
| 20260902035837 | 72 | 291 | 4.0 | 7.0 | 0.00 | 0.02 | 0.02 | 44 | 1021.5 |
| 20260902035738 | 72 | 331 | 4.0 | 7.0 | 0.00 | 0.02 | 0.02 | 43 | 1021.5 |
| 20260902035637 | 72 | 313 | 4.0 | 8.0 | 0.00 | 0.02 | 0.02 | 43 | 1021.3 |
| 20260902035533 | 72 | 309 | 4.0 | 8.0 | 0.00 | 0.02 | 0.02 | 43 | 1021.5 |
| 20260902035445 | 73 | 333 | 4.0 | 8.0 | 0.00 | 0.02 | 0.02 | 42 | 1021.5 |
| 20260902035131 | 73 | 329 | 5.0 | 8.0 | 0.00 | 0.02 | 0.02 | 43 | 1021.3 |
| 20260902035026 | 73 | 337 | 5.0 | 8.0 | 0.00 | 0.02 | 0.02 | 43 | 1021.3 |
| 20260902034925 | 73 | 327 | 5.0 | 8.0 | 0.00 | 0.02 | 0.02 | 43 | 1021.5 |
| 20260902034825 | 73 | 342 | 5.0 | 8.0 | 0.00 | 0.02 | 0.02 | 43 | 1021.5 |
| 20260902034726 | 73 | 319 | 5.0 | 8.0 | 0.00 | 0.02 | 0.02 | 43 | 1021.6 |
| 20260902034625 | 73 | 333 | 5.0 | 10.0 | 0.00 | 0.02 | 0.02 | 42 | 1021.5 |
| 20260902034519 | 73 | 322 | 5.0 | 11.0 | 0.00 | 0.02 | 0.02 | 42 | 1021.5 |
| 20260902034419 | 73 | 329 | 6.0 | 11.0 | 0.00 | 0.02 | 0.02 | 43 | 1021.5 |
| 20260902034320 | 73 | 261 | 6.0 | 11.0 | 0.00 | 0.02 | 0.02 | 43 | 1021.5 |
| 20260902034219 | 73 | 321 | 6.0 | 11.0 | 0.00 | 0.02 | 0.02 | 43 | 1021.6 |
| 20260902034122 | 73 | 272 | 6.0 | 11.0 | 0.00 | 0.02 | 0.02 | 43 | 1021.6 |
| 20260902033914 | 73 | 297 | 6.0 | 11.0 | 0.00 | 0.02 | 0.02 | 43 | 1021.5 |
| 20260902033820 | 73 | 291 | 6.0 | 11.0 | 0.00 | 0.02 | 0.02 | 43 | 1021.6 |
| 20260902033616 | 73 | 275 | 5.0 | 11.0 | 0.00 | 0.02 | 0.02 | 43 | 1021.6 |
| 20260902033409 | 73 | 290 | 5.0 | 10.0 | 0.00 | 0.02 | 0.02 | 43 | 1021.6 |
| 20260902033324 | 73 | 311 | 5.0 | 10.0 | 0.00 | 0.02 | 0.02 | 43 | 1021.5 |
| 20260902033318 | 73 | 317 | 5.0 | 10.0 | 0.00 | 0.02 | 0.02 | 42 | 1021.6 |
| 20260902033006 | 73 | 279 | 4.0 | 9.0 | 0.00 | 0.02 | 0.02 | 43 | 1021.6 |
| 20260902032912 | 73 | 322 | 5.0 | 9.0 | 0.00 | 0.02 | 0.02 | 43 | 1021.5 |
| 20260902032704 | 73 | 300 | 5.0 | 9.0 | 0.00 | 0.02 | 0.02 | 42 | 1021.5 |
| 20260902032601 | 73 | 295 | 5.0 | 9.0 | 0.00 | 0.02 | 0.02 | 42 | 1021.5 |
| 20260902032459 | 73 | 316 | 5.0 | 9.0 | 0.00 | 0.02 | 0.02 | 42 | 1021.3 |
| 20260902032359 | 73 | 292 | 5.0 | 9.0 | 0.00 | 0.02 | 0.02 | 42 | 1021.5 |
| 20260902032300 | 73 | 291 | 4.0 | 9.0 | 0.00 | 0.02 | 0.02 | 42 | 1021.5 |
| 20260902032158 | 73 | 279 | 4.0 | 8.0 | 0.00 | 0.02 | 0.02 | 42 | 1021.5 |
| 20260902032059 | 73 | 294 | 4.0 | 8.0 | 0.00 | 0.02 | 0.02 | 42 | 1021.3 |
| 20260902031856 | 73 | 300 | 4.0 | 8.0 | 0.00 | 0.02 | 0.02 | 41 | 1021.3 |
| 20260902031649 | 73 | 273 | 4.0 | 6.0 | 0.00 | 0.02 | 0.02 | 40 | 1021.3 |
| 20260902031549 | 73 | 291 | 4.0 | 6.0 | 0.00 | 0.02 | 0.02 | 40 | 1021.3 |
| 20260902031444 | 73 | 293 | 4.0 | 6.0 | 0.00 | 0.02 | 0.02 | 40 | 1021.2 |
| 20260902031344 | 73 | 306 | 3.0 | 5.0 | 0.00 | 0.02 | 0.02 | 41 | 1021.3 |
| 20260902031243 | 73 | 306 | 3.0 | 5.0 | 0.00 | 0.02 | 0.02 | 41 | 1021.3 |
| 20260902031154 | 73 | 306 | 3.0 | 5.0 | 0.00 | 0.02 | 0.02 | 41 | 1021.2 |
| 20260902031147 | 73 | 318 | 3.0 | 5.0 | 0.00 | 0.02 | 0.02 | 41 | 1021.3 |
| 20260902030944 | 73 | 323 | 3.0 | 5.0 | 0.00 | 0.02 | 0.02 | 42 | 1021.3 |
| 20260902030738 | 73 | 322 | 3.0 | 5.0 | 0.00 | 0.02 | 0.02 | 43 | 1021.3 |
| 20260902030648 | 72 | 322 | 3.0 | 5.0 | 0.00 | 0.02 | 0.02 | 43 | 1021.3 |
| 20260902030641 | 72 | 322 | 3.0 | 5.0 | 0.00 | 0.02 | 0.02 | 43 | 1021.5 |
| 20260902030438 | 72 | 321 | 2.0 | 4.0 | 0.00 | 0.02 | 0.02 | 43 | 1021.3 |
| 20260902030336 | 72 | 317 | 2.0 | 4.0 | 0.00 | 0.02 | 0.02 | 42 | 1021.5 |
| 20260902030236 | 72 | 321 | 2.0 | 4.0 | 0.00 | 0.02 | 0.02 | 42 | 1021.5 |
| 20260902030133 | 72 | 355 | 2.0 | 4.0 | 0.00 | 0.02 | 0.02 | 41 | 1021.5 |
| 20260902030030 | 72 | 31 | 2.0 | 3.0 | 0.00 | 0.02 | 0.02 | 41 | 1021.6 |
| 20260902025925 | 72 | 31 | 2.0 | 3.0 | 0.00 | 0.02 | 0.02 | 41 | 1021.5 |
| 20260902025825 | 72 | 31 | 2.0 | 3.0 | 0.00 | 0.02 | 0.02 | 41 | 1021.6 |
| 20260902025732 | 72 | 31 | 1.0 | 3.0 | 0.00 | 0.02 | 0.02 | 41 | 1021.5 |
| 20260902025525 | 72 | 31 | 1.0 | 3.0 | 0.00 | 0.03 | 0.02 | 41 | 1021.6 |
| 20260902025437 | 73 | 31 | 1.0 | 3.0 | 0.00 | 0.03 | 0.02 | 41 | 1021.5 |
| 20260902025130 | 73 | 31 | 1.0 | 3.0 | 0.00 | 0.04 | 0.02 | 41 | 1021.5 |
| 20260902025124 | 73 | 31 | 0.0 | 3.0 | 0.00 | 0.04 | 0.02 | 41 | 1021.5 |
| 20260902024920 | 73 | 31 | 0.0 | 3.0 | 0.00 | 0.05 | 0.02 | 42 | 1021.3 |
| 20260902024818 | 73 | 22 | 0.0 | 2.0 | 0.00 | 0.05 | 0.02 | 41 | 1021.3 |
| 20260902024722 | 73 | 22 | 0.0 | 1.0 | 0.00 | 0.05 | 0.02 | 41 | 1021.3 |
| 20260902024516 | 73 | 22 | 0.0 | 0.0 | 0.00 | 0.06 | 0.02 | 41 | 1021.3 |
| 20260902024307 | 73 | 22 | 0.0 | 1.0 | 0.00 | 0.06 | 0.02 | 40 | 1021.2 |
| 20260902024229 | 73 | 22 | 0.0 | 2.0 | 0.00 | 0.07 | 0.02 | 40 | 1021.2 |
| 20260902024007 | 73 | 22 | 0.0 | 3.0 | 0.00 | 0.07 | 0.02 | 40 | 1021.1 |
| 20260902023905 | 74 | 22 | 1.0 | 3.0 | 0.00 | 0.08 | 0.02 | 40 | 1021.1 |
| 20260902023805 | 74 | 22 | 1.0 | 3.0 | 0.00 | 0.08 | 0.02 | 40 | 1021.1 |
| 20260902023706 | 74 | 22 | 1.0 | 3.0 | 0.00 | 0.08 | 0.02 | 40 | 1021.0 |
| 20260902023603 | 74 | 22 | 1.0 | 3.0 | 0.00 | 0.09 | 0.02 | 39 | 1021.0 |
| 20260902023515 | 74 | 22 | 1.0 | 3.0 | 0.00 | 0.10 | 0.02 | 39 | 1021.0 |
| 20260902023501 | 74 | 22 | 1.0 | 3.0 | 0.00 | 0.10 | 0.02 | 39 | 1021.0 |
| 20260902023401 | 74 | 22 | 2.0 | 3.0 | 0.00 | 0.10 | 0.02 | 39 | 1021.0 |
| 20260902023306 | 74 | 22 | 2.0 | 3.0 | 0.00 | 0.10 | 0.02 | 39 | 1020.9 |
| 20260902023058 | 74 | 22 | 2.0 | 3.0 | 0.00 | 0.10 | 0.02 | 38 | 1020.7 |
| 20260902023015 | 74 | 22 | 2.0 | 3.0 | 0.00 | 0.10 | 0.02 | 38 | 1020.7 |
| 20260902022956 | 74 | 22 | 2.0 | 3.0 | 0.00 | 0.11 | 0.02 | 38 | 1020.7 |
| 20260902022850 | 74 | 22 | 2.0 | 3.0 | 0.00 | 0.11 | 0.02 | 38 | 1020.7 |
| 20260902022750 | 74 | 22 | 2.0 | 3.0 | 0.00 | 0.11 | 0.02 | 38 | 1020.7 |
| 20260902022649 | 74 | 22 | 2.0 | 3.0 | 0.00 | 0.11 | 0.02 | 38 | 1020.7 |
| 20260902022549 | 74 | 22 | 1.0 | 3.0 | 0.00 | 0.11 | 0.02 | 38 | 1020.6 |
| 20260902022515 | 74 | 22 | 1.0 | 3.0 | 0.00 | 0.11 | 0.02 | 37 | 1020.6 |
| 20260902022449 | 74 | 22 | 1.0 | 3.0 | 0.00 | 0.12 | 0.02 | 37 | 1020.6 |
| 20260902022348 | 74 | 22 | 2.0 | 4.0 | 0.00 | 0.12 | 0.02 | 37 | 1020.6 |
| 20260902022248 | 74 | 22 | 2.0 | 4.0 | 0.00 | 0.12 | 0.02 | 37 | 1020.6 |
| 20260902022146 | 74 | 22 | 2.0 | 4.0 | 0.00 | 0.12 | 0.02 | 37 | 1020.6 |
| 20260902022016 | 74 | 22 | 2.0 | 4.0 | 0.00 | 0.12 | 0.02 | 36 | 1020.6 |
| 20260902021944 | 74 | 22 | 2.0 | 4.0 | 0.00 | 0.12 | 0.02 | 36 | 1020.6 |
| 20260902021745 | 74 | 22 | 2.0 | 4.0 | 0.00 | 0.13 | 0.02 | 36 | 1020.6 |
| 20260902021537 | 75 | 22 | 2.0 | 4.0 | 0.00 | 0.13 | 0.02 | 37 | 1020.6 |
| 20260902021515 | 74 | 22 | 2.0 | 4.0 | 0.00 | 0.13 | 0.02 | 37 | 1020.6 |
| 20260902021437 | 75 | 22 | 2.0 | 4.0 | 0.00 | 0.13 | 0.02 | 37 | 1020.5 |
| 20260902021334 | 75 | 25 | 2.0 | 4.0 | 0.00 | 0.13 | 0.02 | 36 | 1020.6 |
| 20260902021231 | 75 | 5 | 2.0 | 4.0 | 0.00 | 0.13 | 0.02 | 36 | 1020.6 |
| 20260902021131 | 75 | 5 | 2.0 | 4.0 | 0.00 | 0.13 | 0.02 | 36 | 1020.6 |
| 20260902021015 | 75 | 5 | 2.0 | 4.0 | 0.00 | 0.14 | 0.02 | 36 | 1020.6 |
| 20260902020931 | 75 | 5 | 2.0 | 4.0 | 0.00 | 0.14 | 0.02 | 36 | 1020.6 |
| 20260902020832 | 75 | 5 | 2.0 | 4.0 | 0.00 | 0.14 | 0.02 | 36 | 1020.6 |
| 20260902020625 | 75 | 5 | 2.0 | 4.0 | 0.00 | 0.15 | 0.02 | 35 | 1020.5 |
| 20260902020529 | 75 | 5 | 2.0 | 4.0 | 0.00 | 0.15 | 0.02 | 36 | 1020.5 |
| 20260902020321 | 75 | 5 | 1.0 | 4.0 | 0.00 | 0.15 | 0.02 | 36 | 1020.5 |
| 20260902020219 | 75 | 5 | 1.0 | 3.0 | 0.00 | 0.15 | 0.02 | 36 | 1020.5 |
| 20260902020120 | 75 | 5 | 1.0 | 3.0 | 0.00 | 0.15 | 0.02 | 35 | 1020.5 |
| 20260902020010 | 76 | 5 | 1.0 | 3.0 | 0.00 | 0.15 | 0.02 | 35 | 1020.4 |
| 20260902015919 | 76 | 5 | 1.0 | 3.0 | 0.00 | 0.15 | 0.02 | 35 | 1020.4 |
| 20260902015820 | 76 | 5 | 1.0 | 3.0 | 0.00 | 0.15 | 0.02 | 35 | 1020.5 |
| 20260902015613 | 76 | 5 | 1.0 | 4.0 | 0.00 | 0.15 | 0.02 | 35 | 1020.4 |
| 20260902015509 | 76 | 5 | 1.0 | 4.0 | 0.00 | 0.15 | 0.02 | 35 | 1020.4 |
| 20260902015414 | 76 | 5 | 1.0 | 4.0 | 0.00 | 0.15 | 0.02 | 35 | 1020.4 |
| 20260902015312 | 76 | 328 | 1.0 | 4.0 | 0.00 | 0.15 | 0.02 | 35 | 1020.4 |
| 20260902015211 | 76 | 328 | 1.0 | 4.0 | 0.00 | 0.15 | 0.02 | 35 | 1020.4 |
| 20260902015111 | 76 | 328 | 2.0 | 4.0 | 0.00 | 0.15 | 0.02 | 35 | 1020.5 |
| 20260902015009 | 76 | 328 | 2.0 | 4.0 | 0.00 | 0.15 | 0.02 | 35 | 1020.4 |
| 20260902014907 | 76 | 328 | 2.0 | 4.0 | 0.00 | 0.15 | 0.02 | 35 | 1020.5 |
| 20260902014807 | 76 | 328 | 2.0 | 4.0 | 0.00 | 0.15 | 0.02 | 35 | 1020.4 |
| 20260902014706 | 76 | 265 | 2.0 | 4.0 | 0.00 | 0.15 | 0.02 | 35 | 1020.5 |
| 20260902014604 | 76 | 265 | 3.0 | 5.0 | 0.00 | 0.15 | 0.02 | 35 | 1020.5 |
| 20260902014503 | 76 | 265 | 3.0 | 5.0 | 0.00 | 0.15 | 0.02 | 34 | 1020.5 |
| 20260902014401 | 76 | 324 | 3.0 | 5.0 | 0.00 | 0.15 | 0.02 | 34 | 1020.5 |
| 20260902014302 | 76 | 324 | 3.0 | 5.0 | 0.00 | 0.15 | 0.02 | 34 | 1020.5 |
| 20260902014159 | 77 | 324 | 2.0 | 5.0 | 0.00 | 0.15 | 0.02 | 33 | 1020.5 |
| 20260902014100 | 77 | 324 | 2.0 | 6.0 | 0.00 | 0.15 | 0.02 | 33 | 1020.5 |
| 20260902014007 | 77 | 324 | 3.0 | 6.0 | 0.00 | 0.15 | 0.02 | 33 | 1020.4 |
| 20260902013957 | 77 | 324 | 3.0 | 6.0 | 0.00 | 0.15 | 0.02 | 33 | 1020.4 |
| 20260902013857 | 77 | 324 | 3.0 | 12.0 | 0.00 | 0.15 | 0.02 | 33 | 1020.5 |
| 20260902013757 | 77 | 324 | 3.0 | 12.0 | 0.00 | 0.15 | 0.02 | 33 | 1020.4 |
| 20260902013657 | 77 | 324 | 3.0 | 12.0 | 0.00 | 0.15 | 0.02 | 32 | 1020.4 |
| 20260902013557 | 77 | 331 | 3.0 | 12.0 | 0.00 | 0.15 | 0.02 | 32 | 1020.4 |
| 20260902013505 | 77 | 282 | 3.0 | 12.0 | 0.00 | 0.15 | 0.02 | 32 | 1020.4 |
| 20260902013455 | 77 | 282 | 3.0 | 12.0 | 0.00 | 0.15 | 0.02 | 32 | 1020.4 |
| 20260902013355 | 77 | 282 | 4.0 | 12.0 | 0.00 | 0.15 | 0.02 | 32 | 1020.4 |
| 20260902013253 | 77 | 263 | 4.0 | 12.0 | 0.00 | 0.15 | 0.02 | 32 | 1020.4 |
| 20260902013155 | 77 | 269 | 4.0 | 12.0 | 0.00 | 0.15 | 0.02 | 32 | 1020.4 |
| 20260902013052 | 77 | 288 | 5.0 | 12.0 | 0.00 | 0.15 | 0.02 | 32 | 1020.5 |
| 20260902013005 | 77 | 300 | 5.0 | 12.0 | 0.00 | 0.15 | 0.02 | 32 | 1020.4 |
| 20260902012952 | 77 | 290 | 5.0 | 12.0 | 0.00 | 0.15 | 0.02 | 32 | 1020.4 |
| 20260902012852 | 77 | 296 | 6.0 | 12.0 | 0.00 | 0.15 | 0.02 | 32 | 1020.4 |
| 20260902012752 | 77 | 281 | 6.0 | 13.0 | 0.00 | 0.15 | 0.02 | 33 | 1020.4 |
| 20260902012652 | 77 | 314 | 6.0 | 13.0 | 0.00 | 0.15 | 0.02 | 33 | 1020.5 |
| 20260902012550 | 77 | 355 | 6.0 | 13.0 | 0.00 | 0.15 | 0.02 | 34 | 1020.5 |
| 20260902012505 | 77 | 321 | 6.0 | 13.0 | 0.00 | 0.15 | 0.02 | 35 | 1020.5 |
| 20260902012449 | 77 | 288 | 6.0 | 13.0 | 0.00 | 0.15 | 0.02 | 35 | 1020.5 |
| 20260902012350 | 77 | 273 | 6.0 | 13.0 | 0.00 | 0.15 | 0.02 | 34 | 1020.5 |
| 20260902012257 | 77 | 309 | 5.0 | 13.0 | 0.00 | 0.15 | 0.02 | 33 | 1020.5 |
| 20260902012111 | 77 | 324 | 4.0 | 13.0 | 0.00 | 0.15 | 0.02 | 34 | 1020.5 |
| 20260902011950 | 77 | 309 | 4.0 | 13.0 | 0.00 | 0.15 | 0.02 | 34 | 1020.4 |
| 20260902011849 | 78 | 329 | 4.0 | 13.0 | 0.00 | 0.15 | 0.02 | 35 | 1020.4 |
| 20260902011749 | 78 | 295 | 4.0 | 12.0 | 0.00 | 0.15 | 0.02 | 35 | 1020.4 |
| 20260902011649 | 78 | 317 | 4.0 | 12.0 | 0.00 | 0.15 | 0.02 | 35 | 1020.4 |
| 20260902011550 | 78 | 11 | 4.0 | 10.0 | 0.00 | 0.15 | 0.02 | 36 | 1020.5 |
| 20260902011459 | 78 | 351 | 4.0 | 10.0 | 0.00 | 0.15 | 0.02 | 35 | 1020.5 |
| 20260902011450 | 78 | 306 | 4.0 | 10.0 | 0.00 | 0.15 | 0.02 | 34 | 1020.5 |
| 20260902011348 | 78 | 53 | 4.0 | 10.0 | 0.00 | 0.15 | 0.02 | 34 | 1020.4 |
| 20260902011247 | 78 | 13 | 4.0 | 10.0 | 0.00 | 0.15 | 0.02 | 33 | 1020.5 |
| 20260902011148 | 78 | 35 | 4.0 | 10.0 | 0.00 | 0.15 | 0.02 | 32 | 1020.5 |
| 20260902011126 | 78 | 31 | 5.0 | 10.0 | 0.00 | 0.15 | 0.02 | 32 | 1020.4 |
| 20260902011015 | 78 | 30 | 5.0 | 12.0 | 0.00 | 0.15 | 0.02 | 31 | 1020.5 |
| 20260902010458 | 79 | 25 | 6.0 | 14.0 | 0.00 | 0.15 | 0.02 | 32 | 1020.5 |
| 20260902010447 | 79 | 11 | 6.0 | 14.0 | 0.00 | 0.15 | 0.02 | 32 | 1020.4 |
| 20260902010343 | 79 | 36 | 6.0 | 14.0 | 0.00 | 0.15 | 0.02 | 31 | 1020.4 |
| 20260902010241 | 79 | 9 | 6.0 | 14.0 | 0.00 | 0.15 | 0.02 | 30 | 1020.4 |
| 20260902010139 | 79 | 42 | 6.0 | 14.0 | 0.00 | 0.15 | 0.02 | 30 | 1020.4 |
| 20260902010053 | 79 | 32 | 6.0 | 14.0 | 0.00 | 0.15 | 0.02 | 30 | 1020.3 |
| 20260902010046 | 79 | 24 | 6.0 | 14.0 | 0.00 | 0.15 | 0.02 | 30 | 1020.3 |
| 20260902005740 | 79 | 309 | 6.0 | 13.0 | 0.00 | 0.15 | 0.02 | 30 | 1020.3 |
| 20260902005534 | 79 | 15 | 6.0 | 13.0 | 0.00 | 0.15 | 0.02 | 30 | 1020.3 |
| 20260902005455 | 79 | 347 | 6.0 | 13.0 | 0.00 | 0.15 | 0.02 | 30 | 1020.3 |
| 20260902005433 | 79 | 20 | 6.0 | 13.0 | 0.00 | 0.15 | 0.02 | 30 | 1020.3 |
| 20260902005334 | 79 | 21 | 5.0 | 13.0 | 0.00 | 0.15 | 0.02 | 30 | 1020.2 |
| 20260902005127 | 79 | 350 | 5.0 | 13.0 | 0.00 | 0.15 | 0.02 | 29 | 1020.3 |
| 20260902005027 | 79 | 26 | 4.0 | 13.0 | 0.00 | 0.15 | 0.02 | 29 | 1020.3 |
| 20260902004955 | 78 | 46 | 4.0 | 13.0 | 0.00 | 0.15 | 0.02 | 29 | 1020.3 |
| 20260902004927 | 78 | 33 | 3.0 | 13.0 | 0.00 | 0.15 | 0.02 | 29 | 1020.3 |
| 20260902004827 | 78 | 39 | 3.0 | 13.0 | 0.00 | 0.15 | 0.02 | 30 | 1020.3 |
| 20260902004727 | 78 | 51 | 2.0 | 8.0 | 0.00 | 0.15 | 0.02 | 32 | 1020.3 |
| 20260902004625 | 78 | 31 | 2.0 | 8.0 | 0.00 | 0.16 | 0.02 | 35 | 1020.3 |
| 20260902004525 | 78 | 5 | 2.0 | 8.0 | 0.00 | 0.16 | 0.02 | 35 | 1020.3 |
| 20260902004454 | 78 | 0 | 2.0 | 8.0 | 0.00 | 0.16 | 0.02 | 34 | 1020.3 |
| 20260902004425 | 78 | 355 | 2.0 | 8.0 | 0.00 | 0.16 | 0.02 | 34 | 1020.3 |
| 20260902004324 | 78 | 216 | 2.0 | 4.0 | 0.00 | 0.16 | 0.02 | 35 | 1020.3 |
| 20260902004224 | 78 | 265 | 2.0 | 4.0 | 0.00 | 0.16 | 0.02 | 34 | 1020.3 |
| 20260902004121 | 78 | 265 | 2.0 | 4.0 | 0.00 | 0.16 | 0.02 | 34 | 1020.2 |
| 20260902004022 | 78 | 265 | 2.0 | 4.0 | 0.00 | 0.16 | 0.02 | 34 | 1020.2 |
| 20260902003955 | 79 | 265 | 2.0 | 4.0 | 0.00 | 0.16 | 0.02 | 34 | 1020.2 |
| 20260902003921 | 79 | 265 | 2.0 | 4.0 | 0.00 | 0.16 | 0.02 | 34 | 1020.2 |
| 20260902003822 | 79 | 265 | 2.0 | 4.0 | 0.00 | 0.16 | 0.02 | 35 | 1020.2 |
| 20260902003720 | 79 | 265 | 2.0 | 4.0 | 0.00 | 0.16 | 0.02 | 34 | 1020.2 |
| 20260902003619 | 79 | 265 | 2.0 | 4.0 | 0.00 | 0.16 | 0.02 | 34 | 1020.2 |
| 20260902003530 | 79 | 265 | 2.0 | 4.0 | 0.00 | 0.16 | 0.02 | 34 | 1020.2 |
| 20260902003523 | 79 | 265 | 2.0 | 4.0 | 0.00 | 0.16 | 0.02 | 34 | 1020.2 |
| 20260902003332 | 79 | 265 | 1.0 | 3.0 | 0.00 | 0.16 | 0.02 | 34 | 1020.2 |
| 20260902003017 | 79 | 265 | 1.0 | 2.0 | 0.00 | 0.16 | 0.02 | 34 | 1020.2 |
| 20260902002950 | 79 | 265 | 1.0 | 2.0 | 0.00 | 0.16 | 0.02 | 34 | 1020.2 |
| 20260902002915 | 79 | 265 | 1.0 | 2.0 | 0.00 | 0.16 | 0.02 | 33 | 1020.2 |
| 20260902002815 | 79 | 265 | 1.0 | 2.0 | 0.00 | 0.16 | 0.02 | 33 | 1020.2 |
| 20260902002713 | 79 | 265 | 1.0 | 2.0 | 0.00 | 0.16 | 0.02 | 32 | 1020.2 |
| 20260902002615 | 79 | 265 | 1.0 | 2.0 | 0.00 | 0.16 | 0.02 | 32 | 1020.2 |
| 20260902002449 | 79 | 265 | 1.0 | 2.0 | 0.00 | 0.16 | 0.02 | 32 | 1020.2 |
| 20260902002407 | 79 | 265 | 1.0 | 2.0 | 0.00 | 0.16 | 0.02 | 32 | 1020.2 |
| 20260902002306 | 79 | 265 | 0.0 | 2.0 | 0.00 | 0.16 | 0.02 | 32 | 1020.2 |
| 20260902002205 | 79 | 265 | 0.0 | 2.0 | 0.00 | 0.16 | 0.02 | 32 | 1020.3 |
| 20260902002103 | 80 | 265 | 0.0 | 2.0 | 0.00 | 0.16 | 0.02 | 32 | 1020.3 |
| 20260902002055 | 80 | 265 | 0.0 | 2.0 | 0.00 | 0.16 | 0.02 | 32 | 1020.2 |
| 20260902001913 | 80 | 265 | 0.0 | 1.0 | 0.00 | 0.16 | 0.02 | 32 | 1020.2 |
| 20260902001559 | 80 | 120 | 0.0 | 2.0 | 0.00 | 0.16 | 0.02 | 33 | 1020.2 |
| 20260902001501 | 80 | 120 | 0.0 | 2.0 | 0.00 | 0.16 | 0.02 | 32 | 1020.3 |
| 20260902001256 | 80 | 120 | 0.0 | 2.0 | 0.00 | 0.16 | 0.02 | 32 | 1020.3 |
| 20260902001153 | 80 | 120 | 1.0 | 2.0 | 0.00 | 0.16 | 0.02 | 33 | 1020.2 |
| 20260902001058 | 80 | 120 | 1.0 | 2.0 | 0.00 | 0.16 | 0.02 | 33 | 1020.2 |
| 20260902000945 | 80 | 120 | 1.0 | 2.0 | 0.00 | 0.16 | 0.02 | 32 | 1020.3 |
| 20260902000850 | 80 | 120 | 1.0 | 2.0 | 0.00 | 0.16 | 0.02 | 32 | 1020.3 |
| 20260902000754 | 80 | 120 | 1.0 | 2.0 | 0.00 | 0.16 | 0.02 | 31 | 1020.3 |
| 20260902000545 | 81 | 120 | 0.0 | 2.0 | 0.00 | 0.16 | 0.02 | 32 | 1020.2 |
| 20260902000445 | 81 | 120 | 1.0 | 2.0 | 0.00 | 0.16 | 0.02 | 31 | 1020.2 |
| 20260902000345 | 81 | 120 | 1.0 | 2.0 | 0.00 | 0.16 | 0.02 | 31 | 1020.3 |
| 20260902000245 | 81 | 120 | 1.0 | 2.0 | 0.00 | 0.16 | 0.02 | 32 | 1020.3 |
| 20260902000204 | 81 | 120 | 1.0 | 4.0 | 0.00 | 0.16 | 0.02 | 31 | 1020.2 |
| 20260902000155 | 81 | 120 | 1.0 | 4.0 | 0.00 | 0.16 | 0.02 | 32 | 1020.2 |
| 20260901235842 | 81 | 120 | 1.0 | 4.0 | 0.00 | 0.16 | 0.02 | 32 | 1020.2 |
| 20260901235742 | 81 | 120 | 2.0 | 4.0 | 0.00 | 0.16 | 0.02 | 31 | 1020.2 |
| 20260901235648 | 81 | 120 | 2.0 | 4.0 | 0.00 | 0.16 | 0.02 | 31 | 1020.2 |
| 20260901235440 | 82 | 120 | 2.0 | 4.0 | 0.00 | 0.16 | 0.02 | 31 | 1020.2 |
| 20260901235339 | 82 | 120 | 2.0 | 4.0 | 0.00 | 0.16 | 0.02 | 30 | 1020.2 |
| 20260901235240 | 82 | 120 | 2.0 | 4.0 | 0.00 | 0.16 | 0.02 | 30 | 1020.2 |
| 20260901235139 | 82 | 127 | 2.0 | 4.0 | 0.00 | 0.16 | 0.02 | 31 | 1020.2 |
| 20260901235040 | 82 | 127 | 2.0 | 4.0 | 0.00 | 0.16 | 0.02 | 31 | 1020.2 |
| 20260901234939 | 82 | 127 | 2.0 | 4.0 | 0.00 | 0.16 | 0.02 | 31 | 1020.2 |
| 20260901234839 | 82 | 127 | 2.0 | 4.0 | 0.00 | 0.16 | 0.02 | 30 | 1020.2 |
| 20260901234740 | 82 | 127 | 2.0 | 4.0 | 0.00 | 0.16 | 0.02 | 30 | 1020.2 |
| 20260901234639 | 82 | 127 | 2.0 | 4.0 | 0.00 | 0.16 | 0.02 | 31 | 1020.2 |
| 20260901234537 | 82 | 127 | 2.0 | 4.0 | 0.00 | 0.16 | 0.02 | 30 | 1020.2 |
| 20260901234441 | 82 | 127 | 2.0 | 4.0 | 0.00 | 0.16 | 0.02 | 31 | 1020.2 |
| 20260901234437 | 82 | 127 | 3.0 | 4.0 | 0.00 | 0.16 | 0.02 | 31 | 1020.2 |
| 20260901234337 | 82 | 127 | 3.0 | 5.0 | 0.00 | 0.16 | 0.02 | 29 | 1020.2 |
| 20260901234235 | 82 | 127 | 3.0 | 5.0 | 0.00 | 0.16 | 0.02 | 28 | 1020.2 |
| 20260901234135 | 82 | 127 | 3.0 | 5.0 | 0.00 | 0.16 | 0.02 | 28 | 1020.2 |
| 20260901234033 | 83 | 127 | 2.0 | 5.0 | 0.00 | 0.16 | 0.02 | 28 | 1020.2 |
| 20260901233933 | 83 | 127 | 2.0 | 5.0 | 0.00 | 0.16 | 0.02 | 28 | 1020.2 |
| 20260901233833 | 83 | 127 | 2.0 | 5.0 | 0.00 | 0.16 | 0.02 | 29 | 1020.2 |
| 20260901233733 | 83 | 127 | 2.0 | 5.0 | 0.00 | 0.16 | 0.02 | 28 | 1020.2 |
| 20260901233633 | 83 | 127 | 2.0 | 5.0 | 0.00 | 0.16 | 0.02 | 28 | 1020.2 |
| 20260901233533 | 83 | 113 | 2.0 | 5.0 | 0.00 | 0.16 | 0.02 | 27 | 1020.2 |
| 20260901233438 | 83 | 134 | 2.0 | 5.0 | 0.00 | 0.16 | 0.02 | 28 | 1020.2 |
| 20260901233433 | 83 | 157 | 2.0 | 5.0 | 0.00 | 0.16 | 0.02 | 28 | 1020.2 |
| 20260901233333 | 83 | 157 | 2.0 | 5.0 | 0.00 | 0.16 | 0.02 | 28 | 1020.2 |
| 20260901233231 | 83 | 157 | 2.0 | 5.0 | 0.00 | 0.16 | 0.02 | 28 | 1020.2 |
| 20260901233153 | 83 | 157 | 2.0 | 5.0 | 0.00 | 0.16 | 0.02 | 27 | 1020.2 |
| 20260901232936 | 83 | 157 | 1.0 | 5.0 | 0.00 | 0.16 | 0.02 | 28 | 1020.3 |
| 20260901232729 | 84 | 153 | 1.0 | 5.0 | 0.00 | 0.16 | 0.02 | 29 | 1020.2 |
| 20260901232630 | 84 | 146 | 2.0 | 5.0 | 0.00 | 0.16 | 0.02 | 28 | 1020.2 |
| 20260901232545 | 84 | 146 | 2.0 | 5.0 | 0.00 | 0.16 | 0.02 | 29 | 1020.2 |
| 20260901232425 | 84 | 157 | 2.0 | 4.0 | 0.00 | 0.16 | 0.02 | 29 | 1020.3 |
| 20260901232325 | 84 | 145 | 2.0 | 4.0 | 0.00 | 0.16 | 0.02 | 28 | 1020.2 |
| 20260901232225 | 84 | 145 | 2.0 | 4.0 | 0.00 | 0.16 | 0.02 | 29 | 1020.2 |
| 20260901232126 | 84 | 115 | 2.0 | 5.0 | 0.00 | 0.16 | 0.02 | 29 | 1020.2 |
| 20260901232025 | 84 | 115 | 2.0 | 5.0 | 0.00 | 0.16 | 0.02 | 28 | 1020.2 |
| 20260901231932 | 84 | 115 | 2.0 | 5.0 | 0.00 | 0.16 | 0.02 | 28 | 1020.2 |
| 20260901231725 | 84 | 115 | 2.0 | 5.0 | 0.00 | 0.16 | 0.02 | 27 | 1020.3 |
| 20260901231625 | 85 | 115 | 2.0 | 5.0 | 0.00 | 0.16 | 0.02 | 27 | 1020.2 |
| 20260901231525 | 85 | 109 | 2.0 | 5.0 | 0.00 | 0.16 | 0.02 | 28 | 1020.2 |
| 20260901231439 | 85 | 126 | 2.0 | 5.0 | 0.00 | 0.16 | 0.02 | 28 | 1020.2 |
| 20260901231425 | 85 | 126 | 2.0 | 5.0 | 0.00 | 0.16 | 0.02 | 29 | 1020.2 |
| 20260901231325 | 85 | 136 | 2.0 | 5.0 | 0.00 | 0.16 | 0.02 | 29 | 1020.2 |
| 20260901231226 | 85 | 157 | 1.0 | 5.0 | 0.00 | 0.16 | 0.02 | 30 | 1020.2 |
| 20260901231125 | 85 | 157 | 1.0 | 3.0 | 0.00 | 0.16 | 0.02 | 30 | 1020.2 |
| 20260901231026 | 85 | 157 | 1.0 | 3.0 | 0.00 | 0.16 | 0.02 | 29 | 1020.2 |
| 20260901230939 | 85 | 157 | 1.0 | 3.0 | 0.00 | 0.16 | 0.02 | 29 | 1020.3 |
| 20260901230926 | 85 | 157 | 2.0 | 3.0 | 0.00 | 0.16 | 0.02 | 29 | 1020.3 |
| 20260901230825 | 85 | 157 | 2.0 | 3.0 | 0.00 | 0.16 | 0.02 | 29 | 1020.2 |